Observation data for Sierra Blanca on 11/14/2019      Previous  Date  Next       Current Mesonet Observations  Soil Data  Daily Summary Page  Observations in Plain Language
KSB1 140600Z 03002KT 03/01 A3012 RMK A01 T00300009  RH  086%=      5-min Rain = 0
KSB1 140601Z 02003KT 03/01 A3012 RMK A01 T00300009  RH  086%=      5-min Rain = 0
KSB1 140602Z 01003KT 03/01 A3012 RMK A01 T00300009  RH  086%=      5-min Rain = 0
KSB1 140603Z 00003KT 03/01 A3012 RMK A01 T00300009  RH  086%=      5-min Rain = 0
KSB1 140604Z 01003KT 03/01 A3012 RMK A01 T00290008  RH  086%=      5-min Rain = 0
KSB1 140605Z 00003KT 03/01 A3012 RMK A01 T00300009  RH  086%=      5-min Rain = 0
KSB1 140606Z 01003KT 03/01 A3012 RMK A01 T00290009  RH  087%=      5-min Rain = 0
KSB1 140607Z 01004KT 03/01 A3012 RMK A01 T00290009  RH  086%=      5-min Rain = 0
KSB1 140608Z 02003KT 03/01 A3012 RMK A01 T00290009  RH  086%=      5-min Rain = 0
KSB1 140609Z 02004KT 03/01 A3012 RMK A01 T00300009  RH  087%=      5-min Rain = 0
KSB1 140610Z 02005KT 03/01 A3012 RMK A01 T00290009  RH  087%=      5-min Rain = 0
KSB1 140611Z 01004KT 03/01 A3012 RMK A01 T00290009  RH  087%=      5-min Rain = 0
KSB1 140612Z 00004KT 03/01 A3012 RMK A01 T00290009  RH  087%=      5-min Rain = 0
KSB1 140613Z 00004KT 03/01 A3012 RMK A01 T00290009  RH  087%=      5-min Rain = 0
KSB1 140614Z 00004KT 03/01 A3012 RMK A01 T00290009  RH  087%=      5-min Rain = 0
KSB1 140615Z 35005KT 03/01 A3012 RMK A01 T00290009  RH  087%=      5-min Rain = 0
KSB1 140616Z 35004KT 03/01 A3012 RMK A01 T00290010  RH  087%=      5-min Rain = 0
KSB1 140617Z 35004KT 03/01 A3012 RMK A01 T00280010  RH  087%=      5-min Rain = 0
KSB1 140618Z 35004KT 03/01 A3012 RMK A01 T00290010  RH  088%=      5-min Rain = 0
KSB1 140619Z 34004KT 03/01 A3012 RMK A01 T00290011  RH  088%=      5-min Rain = 0
KSB1 140620Z 34003KT 03/01 A3012 RMK A01 T00290011  RH  088%=      5-min Rain = 0
KSB1 140621Z 34003KT 03/01 A3012 RMK A01 T00300011  RH  088%=      5-min Rain = 0
KSB1 140622Z 31003KT 03/01 A3012 RMK A01 T00310013  RH  088%=      5-min Rain = 0
KSB1 140623Z 30004KT 03/01 A3012 RMK A01 T00310013  RH  088%=      5-min Rain = 0
KSB1 140624Z 28004KT 03/01 A3012 RMK A01 T00320012  RH  087%=      5-min Rain = 0
KSB1 140625Z 28004KT 03/01 A3012 RMK A01 T00330014  RH  088%=      5-min Rain = 0
KSB1 140626Z 28005KT 03/02 A3012 RMK A01 T00340017  RH  089%=      5-min Rain = 0
KSB1 140627Z 28004KT 04/02 A3012 RMK A01 T00360019  RH  089%=      5-min Rain = 0
KSB1 140628Z 27004KT 04/02 A3012 RMK A01 T00370020  RH  089%=      5-min Rain = 0
KSB1 140629Z 27005KT 04/02 A3012 RMK A01 T00380021  RH  089%=      5-min Rain = 0
KSB1 140630Z 27004KT 04/02 A3012 RMK A01 T00380020  RH  088%=      5-min Rain = 0
KSB1 140631Z 27004KT 04/02 A3012 RMK A01 T00380020  RH  088%=      5-min Rain = 0
KSB1 140632Z 26004KT 04/02 A3012 RMK A01 T00370019  RH  088%=      5-min Rain = 0
KSB1 140633Z 26004KT 04/02 A3012 RMK A01 T00350016  RH  088%=      5-min Rain = 0
KSB1 140634Z 26004KT 03/01 A3012 RMK A01 T00320013  RH  087%=      5-min Rain = 0
KSB1 140635Z 26005KT 03/01 A3012 RMK A01 T00300012  RH  088%=      5-min Rain = 0
KSB1 140636Z 27005KT 03/01 A3012 RMK A01 T00290012  RH  089%=      5-min Rain = 0
KSB1 140637Z 27005KT 03/01 A3012 RMK A01 T00280013  RH  090%=      5-min Rain = 0
KSB1 140638Z 27005KT 03/02 A3012 RMK A01 T00280015  RH  091%=      5-min Rain = 0
KSB1 140639Z 28005KT 03/02 A3012 RMK A01 T00300018  RH  092%=      5-min Rain = 0
KSB1 140640Z 28005KT 03/02 A3012 RMK A01 T00330021  RH  092%=      5-min Rain = 0
KSB1 140641Z 28005KT 04/02 A3012 RMK A01 T00360022  RH  091%=      5-min Rain = 0
KSB1 140642Z 28005KT 04/02 A3012 RMK A01 T00390023  RH  089%=      5-min Rain = 0
KSB1 140643Z 28005KT 04/02 A3012 RMK A01 T00400023  RH  088%=      5-min Rain = 0
KSB1 140644Z 28005KT 04/02 A3012 RMK A01 T00420023  RH  087%=      5-min Rain = 0
KSB1 140645Z 27005KT 04/02 A3012 RMK A01 T00420022  RH  087%=      5-min Rain = 0
KSB1 140646Z 27005KT 04/02 A3012 RMK A01 T00420021  RH  086%=      5-min Rain = 0
KSB1 140647Z 27005KT 04/02 A3012 RMK A01 T00420021  RH  086%=      5-min Rain = 0
KSB1 140648Z 27005KT 04/02 A3012 RMK A01 T00410020  RH  086%=      5-min Rain = 0
KSB1 140649Z 26005KT 04/02 A3012 RMK A01 T00410020  RH  087%=      5-min Rain = 0
KSB1 140650Z 27006KT 04/02 A3012 RMK A01 T00410020  RH  087%=      5-min Rain = 0
KSB1 140651Z 27005KT 04/02 A3012 RMK A01 T00400020  RH  087%=      5-min Rain = 0
KSB1 140652Z 27005KT 04/02 A3012 RMK A01 T00400021  RH  087%=      5-min Rain = 0
KSB1 140653Z 27005KT 04/02 A3012 RMK A01 T00410022  RH  088%=      5-min Rain = 0
KSB1 140654Z 27004KT 04/02 A3012 RMK A01 T00420023  RH  088%=      5-min Rain = 0
KSB1 140655Z 28004KT 04/02 A3012 RMK A01 T00430024  RH  088%=      5-min Rain = 0
KSB1 140656Z 30003KT 04/02 A3012 RMK A01 T00430023  RH  087%=      5-min Rain = 0
KSB1 140657Z 02002KT 04/02 A3012 RMK A01 T00410018  RH  085%=      5-min Rain = 0
KSB1 140658Z 01003KT 04/02 A3012 RMK A01 T00390016  RH  085%=      5-min Rain = 0
KSB1 140659Z 00002KT 04/02 A3012 RMK A01 T00370016  RH  086%=      5-min Rain = 0
KSB1 140700Z 32002KT 04/02 A3012 RMK A01 T00370017  RH  087%=      5-min Rain = 0
KSB1 140701Z 32002KT 04/02 A3012 RMK A01 T00370018  RH  088%=      5-min Rain = 0
KSB1 140702Z 34002KT 04/02 A3012 RMK A01 T00380018  RH  087%=      5-min Rain = 0
KSB1 140703Z 00003KT 04/02 A3012 RMK A01 T00380016  RH  085%=      5-min Rain = 0
KSB1 140704Z 36004KT 04/01 A3013 RMK A01 T00370014  RH  085%=      5-min Rain = 0
KSB1 140705Z 36004KT 04/01 A3013 RMK A01 T00360013  RH  085%=      5-min Rain = 0
KSB1 140706Z 36004KT 03/01 A3013 RMK A01 T00340012  RH  085%=      5-min Rain = 0
KSB1 140707Z 36004KT 03/01 A3013 RMK A01 T00330011  RH  086%=      5-min Rain = 0
KSB1 140708Z 36004KT 03/01 A3013 RMK A01 T00310009  RH  086%=      5-min Rain = 0
KSB1 140709Z 00004KT 03/01 A3013 RMK A01 T00290009  RH  087%=      5-min Rain = 0
KSB1 140710Z 00004KT 03/01 A3013 RMK A01 T00280009  RH  087%=      5-min Rain = 0
KSB1 140711Z 00004KT 03/01 A3013 RMK A01 T00270009  RH  088%=      5-min Rain = 0
KSB1 140712Z 01004KT 03/01 A3013 RMK A01 T00270010  RH  088%=      5-min Rain = 0
KSB1 140713Z 00004KT 03/01 A3013 RMK A01 T00280012  RH  089%=      5-min Rain = 0
KSB1 140714Z 36004KT 03/01 A3013 RMK A01 T00290013  RH  089%=      5-min Rain = 0
KSB1 140715Z 36004KT 03/01 A3013 RMK A01 T00310014  RH  089%=      5-min Rain = 0
KSB1 140716Z 01004KT 03/01 A3013 RMK A01 T00320014  RH  088%=      5-min Rain = 0
KSB1 140717Z 00003KT 03/02 A3013 RMK A01 T00330015  RH  088%=      5-min Rain = 0
KSB1 140718Z 36004KT 03/02 A3013 RMK A01 T00340016  RH  088%=      5-min Rain = 0
KSB1 140719Z 35004KT 04/02 A3013 RMK A01 T00350017  RH  088%=      5-min Rain = 0
KSB1 140720Z 36003KT 04/02 A3013 RMK A01 T00360017  RH  088%=      5-min Rain = 0
KSB1 140721Z 35003KT 04/02 A3013 RMK A01 T00370017  RH  087%=      5-min Rain = 0
KSB1 140722Z 35003KT 04/02 A3013 RMK A01 T00380018  RH  087%=      5-min Rain = 0
KSB1 140723Z 36003KT 04/02 A3013 RMK A01 T00380018  RH  087%=      5-min Rain = 0
KSB1 140724Z 00003KT 04/02 A3013 RMK A01 T00390018  RH  086%=      5-min Rain = 0
KSB1 140725Z 00003KT 04/02 A3013 RMK A01 T00390019  RH  086%=      5-min Rain = 0
KSB1 140726Z 00003KT 04/02 A3013 RMK A01 T00400019  RH  086%=      5-min Rain = 0
KSB1 140727Z 00003KT 04/02 A3013 RMK A01 T00410019  RH  086%=      5-min Rain = 0
KSB1 140728Z 00003KT 04/02 A3013 RMK A01 T00410018  RH  085%=      5-min Rain = 0
KSB1 140729Z 00004KT 04/02 A3013 RMK A01 T00410018  RH  085%=      5-min Rain = 0
KSB1 140730Z 00004KT 04/02 A3013 RMK A01 T00400017  RH  085%=      5-min Rain = 0
KSB1 140731Z 01003KT 04/02 A3013 RMK A01 T00380016  RH  085%=      5-min Rain = 0
KSB1 140732Z 01003KT 04/02 A3013 RMK A01 T00370015  RH  086%=      5-min Rain = 0
KSB1 140733Z 01004KT 04/02 A3013 RMK A01 T00370015  RH  086%=      5-min Rain = 0
KSB1 140734Z 00003KT 04/01 A3013 RMK A01 T00360014  RH  086%=      5-min Rain = 0
KSB1 140735Z 00003KT 04/01 A3013 RMK A01 T00350014  RH  086%=      5-min Rain = 0
KSB1 140736Z 36003KT 03/01 A3013 RMK A01 T00340014  RH  087%=      5-min Rain = 0
KSB1 140737Z 36003KT 04/02 A3013 RMK A01 T00350015  RH  087%=      5-min Rain = 0
KSB1 140738Z 36003KT 03/02 A3013 RMK A01 T00340015  RH  087%=      5-min Rain = 0
KSB1 140739Z 36003KT 03/02 A3013 RMK A01 T00340015  RH  087%=      5-min Rain = 0
KSB1 140740Z 35003KT 04/02 A3013 RMK A01 T00350016  RH  088%=      5-min Rain = 0
KSB1 140741Z 36003KT 04/02 A3013 RMK A01 T00350017  RH  088%=      5-min Rain = 0
KSB1 140742Z 35004KT 04/02 A3013 RMK A01 T00360017  RH  087%=      5-min Rain = 0
KSB1 140743Z 35004KT 04/02 A3013 RMK A01 T00370017  RH  087%=      5-min Rain = 0
KSB1 140744Z 35004KT 04/02 A3013 RMK A01 T00370017  RH  087%=      5-min Rain = 0
KSB1 140745Z 00004KT 04/02 A3013 RMK A01 T00370017  RH  087%=      5-min Rain = 0
KSB1 140746Z 00004KT 04/02 A3013 RMK A01 T00370017  RH  087%=      5-min Rain = 0
KSB1 140747Z 00004KT 04/02 A3013 RMK A01 T00380017  RH  087%=      5-min Rain = 0
KSB1 140748Z 00004KT 04/02 A3013 RMK A01 T00380017  RH  086%=      5-min Rain = 0
KSB1 140749Z 00004KT 04/02 A3013 RMK A01 T00380017  RH  086%=      5-min Rain = 0
KSB1 140750Z 00004KT 04/02 A3013 RMK A01 T00380017  RH  086%=      5-min Rain = 0
KSB1 140751Z 00004KT 04/02 A3013 RMK A01 T00370017  RH  086%=      5-min Rain = 0
KSB1 140752Z 00004KT 04/02 A3013 RMK A01 T00370017  RH  087%=      5-min Rain = 0
KSB1 140753Z 36004KT 04/02 A3013 RMK A01 T00360016  RH  087%=      5-min Rain = 0
KSB1 140754Z 36004KT 04/02 A3013 RMK A01 T00360016  RH  087%=      5-min Rain = 0
KSB1 140755Z 00004KT 04/02 A3013 RMK A01 T00360017  RH  087%=      5-min Rain = 0
KSB1 140756Z 01004KT 04/02 A3013 RMK A01 T00360018  RH  088%=      5-min Rain = 0
KSB1 140757Z 00005KT 04/02 A3013 RMK A01 T00370018  RH  087%=      5-min Rain = 0
KSB1 140758Z 00005KT 04/02 A3013 RMK A01 T00370017  RH  087%=      5-min Rain = 0
KSB1 140759Z 36005KT 04/02 A3013 RMK A01 T00370016  RH  087%=      5-min Rain = 0
KSB1 140800Z 36005KT 04/02 A3013 RMK A01 T00360017  RH  087%=      5-min Rain = 0
KSB1 140801Z 35006KT 04/02 A3013 RMK A01 T00370018  RH  087%=      5-min Rain = 0
KSB1 140802Z 35006KT 04/02 A3013 RMK A01 T00380018  RH  087%=      5-min Rain = 0
KSB1 140803Z 35006KT 04/02 A3013 RMK A01 T00380019  RH  087%=      5-min Rain = 0
KSB1 140804Z 35006KT 04/02 A3013 RMK A01 T00390018  RH  087%=      5-min Rain = 0
KSB1 140805Z 34006KT 04/02 A3013 RMK A01 T00390018  RH  087%=      5-min Rain = 0
KSB1 140806Z 34006KT 04/02 A3013 RMK A01 T00390018  RH  087%=      5-min Rain = 0
KSB1 140807Z 34006KT 04/02 A3013 RMK A01 T00390019  RH  087%=      5-min Rain = 0
KSB1 140808Z 34006KT 04/02 A3013 RMK A01 T00400020  RH  087%=      5-min Rain = 0
KSB1 140809Z 34006KT 04/02 A3013 RMK A01 T00410020  RH  086%=      5-min Rain = 0
KSB1 140810Z 35006KT 04/02 A3014 RMK A01 T00420020  RH  086%=      5-min Rain = 0
KSB1 140811Z 35006KT 04/02 A3014 RMK A01 T00420020  RH  085%=      5-min Rain = 0
KSB1 140812Z 34006KT 04/02 A3014 RMK A01 T00420019  RH  085%=      5-min Rain = 0
KSB1 140813Z 34006KT 04/02 A3014 RMK A01 T00410019  RH  085%=      5-min Rain = 0
KSB1 140814Z 35006KT 04/02 A3014 RMK A01 T00410019  RH  086%=      5-min Rain = 0
KSB1 140815Z 36006KT 04/02 A3014 RMK A01 T00410019  RH  086%=      5-min Rain = 0
KSB1 140816Z 35006KT 04/02 A3014 RMK A01 T00410019  RH  086%=      5-min Rain = 0
KSB1 140817Z 34006KT 04/02 A3014 RMK A01 T00410019  RH  086%=      5-min Rain = 0
KSB1 140818Z 34006KT 04/02 A3014 RMK A01 T00410020  RH  086%=      5-min Rain = 0
KSB1 140819Z 34005KT 04/02 A3013 RMK A01 T00410020  RH  086%=      5-min Rain = 0
KSB1 140820Z 34005KT 04/02 A3013 RMK A01 T00420020  RH  086%=      5-min Rain = 0
KSB1 140821Z 34005KT 04/02 A3013 RMK A01 T00420020  RH  085%=      5-min Rain = 0
KSB1 140822Z 34005KT 04/02 A3013 RMK A01 T00420020  RH  085%=      5-min Rain = 0
KSB1 140823Z 35005KT 04/02 A3014 RMK A01 T00420020  RH  085%=      5-min Rain = 0
KSB1 140824Z 35005KT 04/02 A3014 RMK A01 T00430020  RH  085%=      5-min Rain = 0
KSB1 140825Z 35005KT 04/02 A3014 RMK A01 T00440021  RH  085%=      5-min Rain = 0
KSB1 140826Z 34005KT 04/02 A3014 RMK A01 T00440021  RH  085%=      5-min Rain = 0
KSB1 140827Z 34004KT 04/02 A3014 RMK A01 T00440020  RH  085%=      5-min Rain = 0
KSB1 140828Z 34004KT 04/02 A3014 RMK A01 T00440020  RH  085%=      5-min Rain = 0
KSB1 140829Z 34004KT 04/02 A3014 RMK A01 T00440020  RH  085%=      5-min Rain = 0
KSB1 140830Z 34004KT 04/02 A3014 RMK A01 T00440020  RH  085%=      5-min Rain = 0
KSB1 140831Z 34004KT 04/02 A3014 RMK A01 T00430019  RH  084%=      5-min Rain = 0
KSB1 140832Z 35004KT 04/02 A3014 RMK A01 T00420018  RH  084%=      5-min Rain = 0
KSB1 140833Z 34004KT 04/02 A3014 RMK A01 T00420019  RH  085%=      5-min Rain = 0
KSB1 140834Z 34003KT 04/02 A3014 RMK A01 T00420020  RH  086%=      5-min Rain = 0
KSB1 140835Z 34003KT 04/02 A3013 RMK A01 T00430021  RH  086%=      5-min Rain = 0
KSB1 140836Z 34003KT 05/02 A3013 RMK A01 T00450022  RH  085%=      5-min Rain = 0
KSB1 140837Z 33003KT 05/02 A3013 RMK A01 T00460022  RH  084%=      5-min Rain = 0
KSB1 140838Z 33004KT 05/02 A3014 RMK A01 T00480022  RH  084%=      5-min Rain = 0
KSB1 140839Z 33003KT 05/02 A3014 RMK A01 T00450015  RH  081%=      5-min Rain = 0
KSB1 140840Z 31002KT 04/01 A3013 RMK A01 T00380008  RH  081%=      5-min Rain = 0
KSB1 140841Z 29003KT 03/01 A3013 RMK A01 T00340009  RH  084%=      5-min Rain = 0
KSB1 140842Z 30003KT 03/01 A3013 RMK A01 T00330012  RH  086%=      5-min Rain = 0
KSB1 140843Z 30003KT 03/01 A3013 RMK A01 T00340014  RH  087%=      5-min Rain = 0
KSB1 140844Z 32003KT 04/02 A3013 RMK A01 T00360016  RH  087%=      5-min Rain = 0
KSB1 140845Z 33003KT 04/02 A3013 RMK A01 T00380018  RH  087%=      5-min Rain = 0
KSB1 140846Z 33003KT 04/02 A3013 RMK A01 T00410020  RH  086%=      5-min Rain = 0
KSB1 140847Z 33003KT 04/02 A3013 RMK A01 T00430020  RH  085%=      5-min Rain = 0
KSB1 140848Z 34002KT 05/02 A3013 RMK A01 T00470021  RH  083%=      5-min Rain = 0
KSB1 140849Z 35003KT 05/02 A3013 RMK A01 T00510021  RH  081%=      5-min Rain = 0
KSB1 140850Z 35002KT 05/02 A3013 RMK A01 T00540020  RH  079%=      5-min Rain = 0
KSB1 140851Z 36002KT 06/02 A3013 RMK A01 T00560020  RH  077%=      5-min Rain = 0
KSB1 140852Z 35001KT 06/02 A3013 RMK A01 T00560018  RH  077%=      5-min Rain = 0
KSB1 140853Z 00001KT 05/02 A3013 RMK A01 T00520016  RH  078%=      5-min Rain = 0
KSB1 140854Z 01001KT 05/02 A3013 RMK A01 T00490016  RH  079%=      5-min Rain = 0
KSB1 140855Z 00001KT 05/02 A3013 RMK A01 T00470015  RH  080%=      5-min Rain = 0
KSB1 140856Z 35001KT 05/02 A3013 RMK A01 T00460017  RH  082%=      5-min Rain = 0
KSB1 140857Z 33002KT 05/02 A3013 RMK A01 T00460018  RH  082%=      5-min Rain = 0
KSB1 140858Z 34002KT 05/02 A3013 RMK A01 T00460018  RH  082%=      5-min Rain = 0
KSB1 140859Z 35002KT 05/02 A3013 RMK A01 T00460018  RH  082%=      5-min Rain = 0
KSB1 140900Z 35003KT 05/02 A3014 RMK A01 T00470019  RH  082%=      5-min Rain = 0
KSB1 140901Z 36003KT 05/02 A3014 RMK A01 T00490019  RH  081%=      5-min Rain = 0
KSB1 140902Z 36004KT 05/02 A3014 RMK A01 T00510018  RH  080%=      5-min Rain = 0
KSB1 140903Z 00004KT 05/02 A3014 RMK A01 T00520018  RH  079%=      5-min Rain = 0
KSB1 140904Z 00004KT 05/02 A3014 RMK A01 T00530018  RH  078%=      5-min Rain = 0
KSB1 140905Z 00004KT 05/02 A3013 RMK A01 T00540018  RH  078%=      5-min Rain = 0
KSB1 140906Z 00004KT 05/02 A3013 RMK A01 T00540017  RH  077%=      5-min Rain = 0
KSB1 140907Z 01004KT 05/02 A3013 RMK A01 T00530017  RH  078%=      5-min Rain = 0
KSB1 140908Z 00004KT 05/02 A3013 RMK A01 T00520018  RH  079%=      5-min Rain = 0
KSB1 140909Z 36004KT 05/02 A3013 RMK A01 T00510018  RH  079%=      5-min Rain = 0
KSB1 140910Z 35004KT 05/02 A3013 RMK A01 T00520019  RH  079%=      5-min Rain = 0
KSB1 140911Z 35004KT 05/02 A3013 RMK A01 T00530020  RH  079%=      5-min Rain = 0
KSB1 140912Z 35004KT 05/02 A3013 RMK A01 T00530018  RH  078%=      5-min Rain = 0
KSB1 140913Z 35004KT 05/02 A3013 RMK A01 T00510017  RH  079%=      5-min Rain = 0
KSB1 140914Z 35004KT 05/02 A3013 RMK A01 T00510018  RH  079%=      5-min Rain = 0
KSB1 140915Z 36003KT 05/02 A3013 RMK A01 T00510019  RH  080%=      5-min Rain = 0
KSB1 140916Z 00003KT 05/02 A3014 RMK A01 T00530020  RH  079%=      5-min Rain = 0
KSB1 140917Z 01003KT 05/02 A3014 RMK A01 T00540020  RH  079%=      5-min Rain = 0
KSB1 140918Z 01003KT 05/02 A3014 RMK A01 T00540020  RH  078%=      5-min Rain = 0
KSB1 140919Z 01003KT 06/02 A3014 RMK A01 T00550020  RH  078%=      5-min Rain = 0
KSB1 140920Z 00003KT 06/02 A3014 RMK A01 T00560020  RH  078%=      5-min Rain = 0
KSB1 140921Z 35003KT 06/02 A3014 RMK A01 T00560020  RH  078%=      5-min Rain = 0
KSB1 140922Z 00003KT 06/02 A3014 RMK A01 T00570020  RH  077%=      5-min Rain = 0
KSB1 140923Z 00003KT 06/02 A3014 RMK A01 T00570020  RH  077%=      5-min Rain = 0
KSB1 140924Z 00003KT 06/02 A3014 RMK A01 T00570020  RH  077%=      5-min Rain = 0
KSB1 140925Z 34002KT 06/02 A3014 RMK A01 T00580020  RH  077%=      5-min Rain = 0
KSB1 140926Z 33002KT 06/02 A3014 RMK A01 T00590021  RH  076%=      5-min Rain = 0
KSB1 140927Z 34002KT 06/02 A3014 RMK A01 T00610021  RH  075%=      5-min Rain = 0
KSB1 140928Z 34002KT 06/02 A3014 RMK A01 T00620021  RH  075%=      5-min Rain = 0
KSB1 140929Z 33002KT 06/02 A3014 RMK A01 T00630019  RH  074%=      5-min Rain = 0
KSB1 140930Z 34001KT 06/02 A3014 RMK A01 T00600015  RH  073%=      5-min Rain = 0
KSB1 140931Z 34001KT 06/02 A3014 RMK A01 T00570016  RH  075%=      5-min Rain = 0
KSB1 140932Z 35001KT 06/02 A3014 RMK A01 T00570017  RH  076%=      5-min Rain = 0
KSB1 140933Z 00001KT 06/02 A3014 RMK A01 T00580018  RH  076%=      5-min Rain = 0
KSB1 140934Z 01000KT 06/02 A3014 RMK A01 T00600019  RH  075%=      5-min Rain = 0
KSB1 140935Z 02001KT 06/02 A3014 RMK A01 T00610019  RH  074%=      5-min Rain = 0
KSB1 140936Z 01001KT 06/02 A3014 RMK A01 T00630019  RH  073%=      5-min Rain = 0
KSB1 140937Z 01001KT 06/02 A3014 RMK A01 T00640018  RH  072%=      5-min Rain = 0
KSB1 140938Z 01002KT 06/02 A3015 RMK A01 T00630016  RH  072%=      5-min Rain = 0
KSB1 140939Z 01001KT 06/02 A3015 RMK A01 T00610016  RH  073%=      5-min Rain = 0
KSB1 140940Z 01002KT 06/02 A3015 RMK A01 T00620017  RH  073%=      5-min Rain = 0
KSB1 140941Z 01002KT 06/02 A3015 RMK A01 T00640017  RH  072%=      5-min Rain = 0
KSB1 140942Z 35002KT 07/02 A3015 RMK A01 T00660017  RH  071%=      5-min Rain = 0
KSB1 140943Z 34002KT 07/02 A3015 RMK A01 T00660016  RH  070%=      5-min Rain = 0
KSB1 140944Z 34002KT 07/02 A3015 RMK A01 T00660015  RH  070%=      5-min Rain = 0
KSB1 140945Z 36002KT 07/01 A3015 RMK A01 T00660014  RH  069%=      5-min Rain = 0
KSB1 140946Z 02002KT 07/01 A3015 RMK A01 T00680012  RH  068%=      5-min Rain = 0
KSB1 140947Z 02001KT 07/01 A3015 RMK A01 T00690013  RH  068%=      5-min Rain = 0
KSB1 140948Z 02001KT 07/01 A3015 RMK A01 T00690014  RH  068%=      5-min Rain = 0
KSB1 140949Z 34001KT 07/01 A3015 RMK A01 T00680012  RH  068%=      5-min Rain = 0
KSB1 140950Z 03001KT 07/01 A3015 RMK A01 T00670012  RH  068%=      5-min Rain = 0
KSB1 140951Z 35001KT 07/01 A3015 RMK A01 T00650013  RH  070%=      5-min Rain = 0
KSB1 140952Z 01001KT 06/01 A3015 RMK A01 T00620012  RH  070%=      5-min Rain = 0
KSB1 140953Z 35001KT 06/01 A3015 RMK A01 T00610010  RH  070%=      5-min Rain = 0
KSB1 140954Z 34002KT 06/01 A3015 RMK A01 T00600009  RH  069%=      5-min Rain = 0
KSB1 140955Z 34003KT 06/01 A3015 RMK A01 T00600008  RH  069%=      5-min Rain = 0
KSB1 140956Z 33004KT 06/01 A3015 RMK A01 T00600007  RH  069%=      5-min Rain = 0
KSB1 140957Z 34004KT 06/01 A3015 RMK A01 T00600007  RH  069%=      5-min Rain = 0
KSB1 140958Z 34004KT 06/01 A3015 RMK A01 T00590007  RH  069%=      5-min Rain = 0
KSB1 140959Z 33005KT 06/01 A3015 RMK A01 T00580007  RH  070%=      5-min Rain = 0
KSB1 141000Z 33005KT 06/01 A3015 RMK A01 T00560006  RH  070%=      5-min Rain = 0
KSB1 141001Z 34006KT 06/01 A3015 RMK A01 T00550006  RH  071%=      5-min Rain = 0
KSB1 141002Z 34006KT 05/01 A3015 RMK A01 T00540006  RH  071%=      5-min Rain = 0
KSB1 141003Z 34006KT 05/01 A3015 RMK A01 T00520006  RH  072%=      5-min Rain = 0
KSB1 141004Z 34006KT 05/01 A3015 RMK A01 T00510006  RH  073%=      5-min Rain = 0
KSB1 141005Z 34007KT 05/01 A3015 RMK A01 T00500007  RH  074%=      5-min Rain = 0
KSB1 141006Z 34006KT 05/01 A3015 RMK A01 T00480007  RH  074%=      5-min Rain = 0
KSB1 141007Z 34007KT 05/01 A3015 RMK A01 T00470007  RH  075%=      5-min Rain = 0
KSB1 141008Z 34008KT 05/01 A3015 RMK A01 T00460007  RH  076%=      5-min Rain = 0
KSB1 141009Z 34008KT 05/01 A3015 RMK A01 T00460007  RH  076%=      5-min Rain = 0
KSB1 141010Z 34008KT 05/01 A3015 RMK A01 T00470008  RH  076%=      5-min Rain = 0
KSB1 141011Z 34008KT 05/01 A3016 RMK A01 T00470008  RH  075%=      5-min Rain = 0
KSB1 141012Z 34008KT 05/01 A3016 RMK A01 T00480008  RH  075%=      5-min Rain = 0
KSB1 141013Z 34008KT 05/01 A3016 RMK A01 T00490008  RH  075%=      5-min Rain = 0
KSB1 141014Z 34008KT 05/01 A3016 RMK A01 T00490008  RH  074%=      5-min Rain = 0
KSB1 141015Z 34008KT 05/01 A3016 RMK A01 T00500007  RH  074%=      5-min Rain = 0
KSB1 141016Z 33008KT 05/01 A3016 RMK A01 T00500007  RH  074%=      5-min Rain = 0
KSB1 141017Z 34008KT 05/01 A3016 RMK A01 T00510007  RH  073%=      5-min Rain = 0
KSB1 141018Z 34007KT 05/01 A3016 RMK A01 T00520007  RH  072%=      5-min Rain = 0
KSB1 141019Z 34007KT 05/01 A3016 RMK A01 T00540007  RH  071%=      5-min Rain = 0
KSB1 141020Z 34007KT 06/01 A3016 RMK A01 T00560007  RH  071%=      5-min Rain = 0
KSB1 141021Z 34006KT 06/01 A3016 RMK A01 T00560006  RH  070%=      5-min Rain = 0
KSB1 141022Z 34006KT 06/01 A3016 RMK A01 T00570006  RH  070%=      5-min Rain = 0
KSB1 141023Z 34005KT 06/01 A3016 RMK A01 T00570006  RH  070%=      5-min Rain = 0
KSB1 141024Z 35006KT 06/01 A3016 RMK A01 T00580005  RH  069%=      5-min Rain = 0
KSB1 141025Z 36005KT 06/01 A3016 RMK A01 T00580005  RH  069%=      5-min Rain = 0
KSB1 141026Z 35005KT 06/01 A3016 RMK A01 T00590005  RH  069%=      5-min Rain = 0
KSB1 141027Z 35005KT 06/01 A3016 RMK A01 T00590005  RH  068%=      5-min Rain = 0
KSB1 141028Z 35005KT 06/01 A3016 RMK A01 T00580005  RH  069%=      5-min Rain = 0
KSB1 141029Z 36005KT 06/01 A3016 RMK A01 T00580005  RH  069%=      5-min Rain = 0
KSB1 141030Z 35005KT 06/01 A3016 RMK A01 T00580005  RH  069%=      5-min Rain = 0
KSB1 141031Z 35006KT 06/00 A3016 RMK A01 T00570004  RH  069%=      5-min Rain = 0
KSB1 141032Z 35006KT 06/00 A3016 RMK A01 T00570004  RH  069%=      5-min Rain = 0
KSB1 141033Z 35006KT 06/01 A3016 RMK A01 T00570005  RH  069%=      5-min Rain = 0
KSB1 141034Z 35007KT 06/01 A3016 RMK A01 T00580005  RH  069%=      5-min Rain = 0
KSB1 141035Z 35007KT 06/01 A3016 RMK A01 T00590005  RH  068%=      5-min Rain = 0
KSB1 141036Z 35006KT 06/01 A3016 RMK A01 T00600005  RH  068%=      5-min Rain = 0
KSB1 141037Z 35007KT 06/01 A3016 RMK A01 T00600005  RH  068%=      5-min Rain = 0
KSB1 141038Z 35006KT 06/01 A3016 RMK A01 T00600006  RH  068%=      5-min Rain = 0
KSB1 141039Z 35006KT 06/01 A3016 RMK A01 T00610006  RH  068%=      5-min Rain = 0
KSB1 141040Z 34006KT 06/01 A3016 RMK A01 T00610006  RH  068%=      5-min Rain = 0
KSB1 141041Z 34006KT 06/01 A3016 RMK A01 T00610006  RH  068%=      5-min Rain = 0
KSB1 141042Z 35006KT 06/01 A3016 RMK A01 T00610006  RH  068%=      5-min Rain = 0
KSB1 141043Z 34006KT 06/01 A3017 RMK A01 T00610007  RH  068%=      5-min Rain = 0
KSB1 141044Z 35007KT 06/01 A3017 RMK A01 T00620007  RH  068%=      5-min Rain = 0
KSB1 141045Z 35007KT 06/01 A3017 RMK A01 T00620007  RH  068%=      5-min Rain = 0
KSB1 141046Z 35007KT 06/01 A3017 RMK A01 T00620007  RH  068%=      5-min Rain = 0
KSB1 141047Z 35007KT 06/01 A3017 RMK A01 T00620007  RH  068%=      5-min Rain = 0
KSB1 141048Z 35007KT 06/01 A3017 RMK A01 T00610008  RH  069%=      5-min Rain = 0
KSB1 141049Z 35007KT 06/01 A3017 RMK A01 T00610008  RH  069%=      5-min Rain = 0
KSB1 141050Z 35007KT 06/01 A3017 RMK A01 T00610008  RH  069%=      5-min Rain = 0
KSB1 141051Z 35007KT 06/01 A3017 RMK A01 T00610008  RH  069%=      5-min Rain = 0
KSB1 141052Z 35007KT 06/01 A3017 RMK A01 T00610009  RH  069%=      5-min Rain = 0
KSB1 141053Z 35007KT 06/01 A3017 RMK A01 T00600008  RH  069%=      5-min Rain = 0
KSB1 141054Z 35007KT 06/01 A3017 RMK A01 T00600008  RH  069%=      5-min Rain = 0
KSB1 141055Z 36007KT 06/01 A3017 RMK A01 T00600008  RH  069%=      5-min Rain = 0
KSB1 141056Z 35007KT 06/01 A3017 RMK A01 T00610008  RH  069%=      5-min Rain = 0
KSB1 141057Z 35007KT 06/01 A3017 RMK A01 T00610008  RH  069%=      5-min Rain = 0
KSB1 141058Z 35007KT 06/01 A3017 RMK A01 T00600008  RH  069%=      5-min Rain = 0
KSB1 141059Z 35007KT 06/01 A3017 RMK A01 T00600008  RH  069%=      5-min Rain = 0
KSB1 141100Z 35006KT 06/01 A3017 RMK A01 T00600008  RH  069%=      5-min Rain = 0
KSB1 141101Z 35006KT 06/01 A3017 RMK A01 T00600008  RH  069%=      5-min Rain = 0
KSB1 141102Z 35007KT 06/01 A3017 RMK A01 T00600008  RH  069%=      5-min Rain = 0
KSB1 141103Z 35007KT 06/01 A3017 RMK A01 T00600008  RH  069%=      5-min Rain = 0
KSB1 141104Z 34006KT 06/01 A3017 RMK A01 T00600008  RH  069%=      5-min Rain = 0
KSB1 141105Z 34006KT 06/01 A3017 RMK A01 T00600008  RH  069%=      5-min Rain = 0
KSB1 141106Z 35007KT 06/01 A3017 RMK A01 T00600009  RH  070%=      5-min Rain = 0
KSB1 141107Z 35006KT 06/01 A3017 RMK A01 T00600008  RH  070%=      5-min Rain = 0
KSB1 141108Z 35006KT 06/01 A3017 RMK A01 T00600008  RH  070%=      5-min Rain = 0
KSB1 141109Z 35006KT 06/01 A3017 RMK A01 T00600009  RH  070%=      5-min Rain = 0
KSB1 141110Z 35006KT 06/01 A3017 RMK A01 T00590008  RH  070%=      5-min Rain = 0
KSB1 141111Z 35007KT 06/01 A3017 RMK A01 T00590008  RH  070%=      5-min Rain = 0
KSB1 141112Z 35007KT 06/01 A3017 RMK A01 T00590008  RH  070%=      5-min Rain = 0
KSB1 141113Z 35007KT 06/01 A3017 RMK A01 T00580008  RH  070%=      5-min Rain = 0
KSB1 141114Z 34007KT 06/01 A3017 RMK A01 T00580008  RH  070%=      5-min Rain = 0
KSB1 141115Z 34006KT 06/01 A3017 RMK A01 T00580008  RH  070%=      5-min Rain = 0
KSB1 141116Z 34006KT 06/01 A3017 RMK A01 T00580007  RH  070%=      5-min Rain = 0
KSB1 141117Z 35006KT 06/01 A3017 RMK A01 T00580007  RH  070%=      5-min Rain = 0
KSB1 141118Z 35006KT 06/01 A3017 RMK A01 T00580007  RH  069%=      5-min Rain = 0
KSB1 141119Z 35006KT 06/01 A3017 RMK A01 T00580007  RH  070%=      5-min Rain = 0
KSB1 141120Z 35006KT 06/01 A3017 RMK A01 T00580007  RH  070%=      5-min Rain = 0
KSB1 141121Z 34006KT 06/01 A3017 RMK A01 T00580006  RH  069%=      5-min Rain = 0
KSB1 141122Z 35006KT 06/01 A3017 RMK A01 T00580006  RH  069%=      5-min Rain = 0
KSB1 141123Z 34005KT 06/01 A3017 RMK A01 T00590006  RH  069%=      5-min Rain = 0
KSB1 141124Z 34005KT 06/01 A3017 RMK A01 T00600006  RH  068%=      5-min Rain = 0
KSB1 141125Z 34005KT 06/01 A3017 RMK A01 T00600006  RH  068%=      5-min Rain = 0
KSB1 141126Z 33005KT 06/01 A3017 RMK A01 T00590005  RH  068%=      5-min Rain = 0
KSB1 141127Z 33005KT 06/01 A3017 RMK A01 T00600005  RH  068%=      5-min Rain = 0
KSB1 141128Z 34006KT 06/01 A3017 RMK A01 T00600005  RH  068%=      5-min Rain = 0
KSB1 141129Z 34005KT 06/01 A3018 RMK A01 T00600005  RH  068%=      5-min Rain = 0
KSB1 141130Z 34006KT 06/01 A3018 RMK A01 T00610005  RH  067%=      5-min Rain = 0
KSB1 141131Z 34005KT 06/01 A3018 RMK A01 T00610005  RH  067%=      5-min Rain = 0
KSB1 141132Z 34005KT 06/00 A3018 RMK A01 T00620004  RH  066%=      5-min Rain = 0
KSB1 141133Z 34006KT 06/00 A3018 RMK A01 T00630004  RH  066%=      5-min Rain = 0
KSB1 141134Z 34006KT 06/00 A3018 RMK A01 T00630004  RH  066%=      5-min Rain = 0
KSB1 141135Z 34006KT 06/00 A3018 RMK A01 T00630003  RH  066%=      5-min Rain = 0
KSB1 141136Z 34005KT 06/00 A3018 RMK A01 T00630002  RH  065%=      5-min Rain = 0
KSB1 141137Z 35006KT 06/00 A3018 RMK A01 T00620002  RH  065%=      5-min Rain = 0
KSB1 141138Z 34006KT 06/00 A3018 RMK A01 T00620001  RH  065%=      5-min Rain = 0
KSB1 141139Z 34005KT 06/00 A3018 RMK A01 T00620001  RH  065%=      5-min Rain = 0
KSB1 141140Z 34006KT 06/00 A3018 RMK A01 T00620000  RH  065%=      5-min Rain = 0
KSB1 141141Z 34006KT 06/M00 A3018 RMK A01 T00611001  RH  064%=      5-min Rain = 0
KSB1 141142Z 34006KT 06/M00 A3018 RMK A01 T00611002  RH  064%=      5-min Rain = 0
KSB1 141143Z 34006KT 06/M00 A3018 RMK A01 T00621002  RH  063%=      5-min Rain = 0
KSB1 141144Z 34006KT 06/M00 A3018 RMK A01 T00631003  RH  063%=      5-min Rain = 0
KSB1 141145Z 35007KT 06/M00 A3018 RMK A01 T00631003  RH  063%=      5-min Rain = 0
KSB1 141146Z 35007KT 06/M00 A3018 RMK A01 T00631003  RH  063%=      5-min Rain = 0
KSB1 141147Z 35007KT 06/M00 A3018 RMK A01 T00631004  RH  062%=      5-min Rain = 0
KSB1 141148Z 35007KT 06/M00 A3018 RMK A01 T00621004  RH  063%=      5-min Rain = 0
KSB1 141149Z 35007KT 06/M01 A3018 RMK A01 T00611005  RH  063%=      5-min Rain = 0
KSB1 141150Z 35007KT 06/M01 A3018 RMK A01 T00611005  RH  063%=      5-min Rain = 0
KSB1 141151Z 35007KT 06/M01 A3019 RMK A01 T00611006  RH  062%=      5-min Rain = 0
KSB1 141152Z 35007KT 06/M01 A3019 RMK A01 T00611006  RH  062%=      5-min Rain = 0
KSB1 141153Z 35007KT 06/M01 A3019 RMK A01 T00611006  RH  062%=      5-min Rain = 0
KSB1 141154Z 35007KT 06/M01 A3019 RMK A01 T00611006  RH  062%=      5-min Rain = 0
KSB1 141155Z 35007KT 06/M01 A3019 RMK A01 T00611007  RH  062%=      5-min Rain = 0
KSB1 141156Z 35007KT 06/M01 A3019 RMK A01 T00621007  RH  061%=      5-min Rain = 0
KSB1 141157Z 35007KT 06/M01 A3019 RMK A01 T00621008  RH  061%=      5-min Rain = 0
KSB1 141158Z 34007KT 06/M01 A3019 RMK A01 T00621008  RH  061%=      5-min Rain = 0
KSB1 141159Z 34007KT 06/M01 A3019 RMK A01 T00621009  RH  060%=      5-min Rain = 0
KSB1 141200Z 35007KT 06/M01 A3019 RMK A01 T00631010  RH  060%=      5-min Rain = 0
KSB1 141201Z 35007KT 06/M01 A3019 RMK A01 T00641010  RH  059%=      5-min Rain = 0
KSB1 141202Z 35007KT 06/M01 A3019 RMK A01 T00641010  RH  059%=      5-min Rain = 0
KSB1 141203Z 35006KT 06/M01 A3019 RMK A01 T00641010  RH  059%=      5-min Rain = 0
KSB1 141204Z 35005KT 06/M01 A3019 RMK A01 T00641011  RH  059%=      5-min Rain = 0
KSB1 141205Z 00004KT 06/M01 A3019 RMK A01 T00631011  RH  059%=      5-min Rain = 0
KSB1 141206Z 00005KT 06/M01 A3019 RMK A01 T00641011  RH  059%=      5-min Rain = 0
KSB1 141207Z 01004KT 06/M01 A302 RMK A01 T00631011  RH  059%=      5-min Rain = 0
KSB1 141208Z 01004KT 06/M01 A302 RMK A01 T00621011  RH  059%=      5-min Rain = 0
KSB1 141209Z 02004KT 06/M01 A302 RMK A01 T00611011  RH  060%=      5-min Rain = 0
KSB1 141210Z 02004KT 06/M01 A302 RMK A01 T00611011  RH  060%=      5-min Rain = 0
KSB1 141211Z 02004KT 06/M01 A302 RMK A01 T00601012  RH  060%=      5-min Rain = 0
KSB1 141212Z 02004KT 06/M01 A302 RMK A01 T00591012  RH  061%=      5-min Rain = 0
KSB1 141213Z 02004KT 06/M01 A302 RMK A01 T00581012  RH  061%=      5-min Rain = 0
KSB1 141214Z 03004KT 06/M01 A302 RMK A01 T00571012  RH  061%=      5-min Rain = 0
KSB1 141215Z 03004KT 06/M01 A302 RMK A01 T00571011  RH  062%=      5-min Rain = 0
KSB1 141216Z 03004KT 06/M01 A302 RMK A01 T00551011  RH  062%=      5-min Rain = 0
KSB1 141217Z 03004KT 05/M01 A302 RMK A01 T00541011  RH  063%=      5-min Rain = 0
KSB1 141218Z 05004KT 05/M01 A302 RMK A01 T00531011  RH  063%=      5-min Rain = 0
KSB1 141219Z 06005KT 05/M01 A302 RMK A01 T00531011  RH  063%=      5-min Rain = 0
KSB1 141220Z 07005KT 05/M01 A302 RMK A01 T00511011  RH  064%=      5-min Rain = 0
KSB1 141221Z 07005KT 05/M01 A302 RMK A01 T00501011  RH  065%=      5-min Rain = 0
KSB1 141222Z 06004KT 05/M01 A302 RMK A01 T00471011  RH  066%=      5-min Rain = 0
KSB1 141223Z 06004KT 05/M01 A302 RMK A01 T00451010  RH  068%=      5-min Rain = 0
KSB1 141224Z 08004KT 04/M01 A3021 RMK A01 T00421010  RH  069%=      5-min Rain = 0
KSB1 141225Z 08004KT 04/M01 A3021 RMK A01 T00401009  RH  070%=      5-min Rain = 0
KSB1 141226Z 09004KT 04/M01 A3021 RMK A01 T00371010  RH  071%=      5-min Rain = 0
KSB1 141227Z 09005KT 03/M01 A3021 RMK A01 T00341009  RH  073%=      5-min Rain = 0
KSB1 141228Z 09005KT 03/M01 A3021 RMK A01 T00321008  RH  075%=      5-min Rain = 0
KSB1 141229Z 09005KT 03/M01 A3021 RMK A01 T00291007  RH  077%=      5-min Rain = 0
KSB1 141230Z 08004KT 03/M01 A3021 RMK A01 T00281006  RH  078%=      5-min Rain = 0
KSB1 141231Z 06004KT 03/M01 A3021 RMK A01 T00271006  RH  079%=      5-min Rain = 0
KSB1 141232Z 05004KT 03/M01 A3021 RMK A01 T00271005  RH  079%=      5-min Rain = 0
KSB1 141233Z 04004KT 03/M01 A3021 RMK A01 T00261005  RH  080%=      5-min Rain = 0
KSB1 141234Z 03005KT 03/M01 A3021 RMK A01 T00261005  RH  080%=      5-min Rain = 0
KSB1 141235Z 03006KT 03/M01 A3021 RMK A01 T00261005  RH  080%=      5-min Rain = 0
KSB1 141236Z 02006KT 03/M01 A3021 RMK A01 T00261005  RH  080%=      5-min Rain = 0
KSB1 141237Z 02006KT 03/M01 A3021 RMK A01 T00261005  RH  080%=      5-min Rain = 0
KSB1 141238Z 02006KT 03/M01 A3021 RMK A01 T00261005  RH  080%=      5-min Rain = 0
KSB1 141239Z 03005KT 03/M01 A3021 RMK A01 T00251005  RH  081%=      5-min Rain = 0
KSB1 141240Z 03005KT 02/M01 A3022 RMK A01 T00241006  RH  081%=      5-min Rain = 0
KSB1 141241Z 03005KT 02/M01 A3022 RMK A01 T00241006  RH  081%=      5-min Rain = 0
KSB1 141242Z 02005KT 02/M01 A3022 RMK A01 T00231006  RH  081%=      5-min Rain = 0
KSB1 141243Z 02005KT 02/M01 A3022 RMK A01 T00231006  RH  081%=      5-min Rain = 0
KSB1 141244Z 01005KT 02/M01 A3022 RMK A01 T00241006  RH  081%=      5-min Rain = 0
KSB1 141245Z 00005KT 03/M01 A3022 RMK A01 T00251005  RH  081%=      5-min Rain = 0
KSB1 141246Z 00006KT 03/M00 A3022 RMK A01 T00261004  RH  081%=      5-min Rain = 0
KSB1 141247Z 00007KT 03/M00 A3022 RMK A01 T00281004  RH  080%=      5-min Rain = 0
KSB1 141248Z 36007KT 03/M00 A3022 RMK A01 T00311004  RH  078%=      5-min Rain = 0
KSB1 141249Z 00007KT 04/M00 A3022 RMK A01 T00351004  RH  076%=      5-min Rain = 0
KSB1 141250Z 35007KT 04/M01 A3022 RMK A01 T00361005  RH  074%=      5-min Rain = 0
KSB1 141251Z 00007KT 04/M01 A3022 RMK A01 T00371006  RH  073%=      5-min Rain = 0
KSB1 141252Z 36007KT 04/M01 A3022 RMK A01 T00381007  RH  073%=      5-min Rain = 0
KSB1 141253Z 36007KT 04/M01 A3022 RMK A01 T00381007  RH  072%=      5-min Rain = 0
KSB1 141254Z 36008KT 04/M01 A3022 RMK A01 T00381008  RH  072%=      5-min Rain = 0
KSB1 141255Z 35008KT 04/M01 A3022 RMK A01 T00391009  RH  071%=      5-min Rain = 0
KSB1 141256Z 36008KT 04/M01 A3023 RMK A01 T00401009  RH  070%=      5-min Rain = 0
KSB1 141257Z 36007KT 04/M01 A3023 RMK A01 T00411009  RH  069%=      5-min Rain = 0
KSB1 141258Z 36008KT 04/M01 A3023 RMK A01 T00431010  RH  069%=      5-min Rain = 0
KSB1 141259Z 36008KT 04/M01 A3023 RMK A01 T00441010  RH  068%=      5-min Rain = 0
KSB1 141300Z 00008KT 05/M01 A3023 RMK A01 T00451010  RH  067%=      5-min Rain = 0
KSB1 141301Z 36008KT 05/M01 A3023 RMK A01 T00461010  RH  067%=      5-min Rain = 0
KSB1 141302Z 00008KT 05/M01 A3023 RMK A01 T00471010  RH  066%=      5-min Rain = 0
KSB1 141303Z 00009KT 05/M01 A3023 RMK A01 T00471010  RH  066%=      5-min Rain = 0
KSB1 141304Z 00009KT 05/M01 A3023 RMK A01 T00481010  RH  066%=      5-min Rain = 0
KSB1 141305Z 00009KT 05/M01 A3023 RMK A01 T00491010  RH  066%=      5-min Rain = 0
KSB1 141306Z 01009KT 05/M01 A3023 RMK A01 T00491010  RH  065%=      5-min Rain = 0
KSB1 141307Z 01009KT 05/M01 A3023 RMK A01 T00501010  RH  065%=      5-min Rain = 0
KSB1 141308Z 01009KT 05/M01 A3023 RMK A01 T00491010  RH  065%=      5-min Rain = 0
KSB1 141309Z 01009KT 05/M01 A3023 RMK A01 T00481010  RH  066%=      5-min Rain = 0
KSB1 141310Z 02008KT 05/M01 A3024 RMK A01 T00461010  RH  067%=      5-min Rain = 0
KSB1 141311Z 02007KT 05/M01 A3024 RMK A01 T00451011  RH  067%=      5-min Rain = 0
KSB1 141312Z 02008KT 04/M01 A3024 RMK A01 T00431011  RH  068%=      5-min Rain = 0
KSB1 141313Z 02008KT 04/M01 A3024 RMK A01 T00421011  RH  068%=      5-min Rain = 0
KSB1 141314Z 02007KT 04/M01 A3024 RMK A01 T00411011  RH  069%=      5-min Rain = 0
KSB1 141315Z 02008KT 04/M01 A3024 RMK A01 T00391011  RH  070%=      5-min Rain = 0
KSB1 141316Z 02008KT 04/M01 A3024 RMK A01 T00381011  RH  070%=      5-min Rain = 0
KSB1 141317Z 02008KT 04/M01 A3024 RMK A01 T00381011  RH  070%=      5-min Rain = 0
KSB1 141318Z 02008KT 04/M01 A3024 RMK A01 T00381011  RH  070%=      5-min Rain = 0
KSB1 141319Z 02008KT 04/M01 A3024 RMK A01 T00381011  RH  070%=      5-min Rain = 0
KSB1 141320Z 02008KT 04/M01 A3024 RMK A01 T00381011  RH  071%=      5-min Rain = 0
KSB1 141321Z 02008KT 04/M01 A3024 RMK A01 T00371011  RH  071%=      5-min Rain = 0
KSB1 141322Z 02008KT 04/M01 A3024 RMK A01 T00361011  RH  071%=      5-min Rain = 0
KSB1 141323Z 02007KT 04/M01 A3024 RMK A01 T00351011  RH  072%=      5-min Rain = 0
KSB1 141324Z 02007KT 04/M01 A3024 RMK A01 T00351011  RH  072%=      5-min Rain = 0
KSB1 141325Z 02007KT 03/M01 A3024 RMK A01 T00341011  RH  072%=      5-min Rain = 0
KSB1 141326Z 02006KT 03/M01 A3024 RMK A01 T00331012  RH  072%=      5-min Rain = 0
KSB1 141327Z 01006KT 03/M01 A3024 RMK A01 T00331012  RH  073%=      5-min Rain = 0
KSB1 141328Z 01006KT 03/M01 A3024 RMK A01 T00331012  RH  072%=      5-min Rain = 0
KSB1 141329Z 01006KT 04/M01 A3025 RMK A01 T00351011  RH  072%=      5-min Rain = 0
KSB1 141330Z 00006KT 04/M01 A3025 RMK A01 T00351012  RH  071%=      5-min Rain = 0
KSB1 141331Z 35006KT 04/M01 A3025 RMK A01 T00351012  RH  071%=      5-min Rain = 0
KSB1 141332Z 35006KT 04/M01 A3025 RMK A01 T00361012  RH  071%=      5-min Rain = 0
KSB1 141333Z 35005KT 04/M01 A3025 RMK A01 T00391010  RH  070%=      5-min Rain = 0
KSB1 141334Z 35006KT 04/M01 A3025 RMK A01 T00411010  RH  069%=      5-min Rain = 0
KSB1 141335Z 35006KT 04/M01 A3025 RMK A01 T00421010  RH  069%=      5-min Rain = 0
KSB1 141336Z 35006KT 04/M01 A3025 RMK A01 T00441010  RH  068%=      5-min Rain = 0
KSB1 141337Z 35006KT 05/M01 A3025 RMK A01 T00451010  RH  068%=      5-min Rain = 0
KSB1 141338Z 36006KT 05/M01 A3025 RMK A01 T00451010  RH  068%=      5-min Rain = 0
KSB1 141339Z 00006KT 05/M01 A3025 RMK A01 T00451010  RH  067%=      5-min Rain = 0
KSB1 141340Z 36006KT 05/M01 A3025 RMK A01 T00451010  RH  067%=      5-min Rain = 0
KSB1 141341Z 36006KT 05/M01 A3025 RMK A01 T00451010  RH  068%=      5-min Rain = 0
KSB1 141342Z 35007KT 05/M01 A3025 RMK A01 T00451010  RH  068%=      5-min Rain = 0
KSB1 141343Z 35007KT 05/M01 A3025 RMK A01 T00451009  RH  068%=      5-min Rain = 0
KSB1 141344Z 35007KT 05/M01 A3025 RMK A01 T00451009  RH  068%=      5-min Rain = 0
KSB1 141345Z 34007KT 05/M01 A3025 RMK A01 T00461009  RH  068%=      5-min Rain = 0
KSB1 141346Z 35007KT 05/M01 A3025 RMK A01 T00461009  RH  067%=      5-min Rain = 0
KSB1 141347Z 35007KT 05/M01 A3025 RMK A01 T00481009  RH  067%=      5-min Rain = 0
KSB1 141348Z 34007KT 05/M01 A3025 RMK A01 T00491009  RH  066%=      5-min Rain = 0
KSB1 141349Z 33007KT 05/M01 A3025 RMK A01 T00511009  RH  065%=      5-min Rain = 0
KSB1 141350Z 34007KT 05/M01 A3026 RMK A01 T00521009  RH  064%=      5-min Rain = 0
KSB1 141351Z 35007KT 05/M01 A3026 RMK A01 T00541010  RH  063%=      5-min Rain = 0
KSB1 141352Z 35005KT 06/M01 A3026 RMK A01 T00571010  RH  062%=      5-min Rain = 0
KSB1 141353Z 36005KT 06/M01 A3026 RMK A01 T00571009  RH  063%=      5-min Rain = 0
KSB1 141354Z 34006KT 06/M01 A3026 RMK A01 T00561010  RH  063%=      5-min Rain = 0
KSB1 141355Z 35006KT 06/M01 A3026 RMK A01 T00571010  RH  062%=      5-min Rain = 0
KSB1 141356Z 01004KT 06/M01 A3026 RMK A01 T00591010  RH  061%=      5-min Rain = 0
KSB1 141357Z 00005KT 06/M01 A3026 RMK A01 T00591009  RH  062%=      5-min Rain = 0
KSB1 141358Z 00005KT 06/M01 A3026 RMK A01 T00591009  RH  062%=      5-min Rain = 0
KSB1 141359Z 01005KT 06/M01 A3026 RMK A01 T00591010  RH  061%=      5-min Rain = 0
KSB1 141400Z 01005KT 06/M01 A3026 RMK A01 T00601010  RH  061%=      5-min Rain = 0
KSB1 141401Z 36006KT 06/M01 A3026 RMK A01 T00611010  RH  060%=      5-min Rain = 0
KSB1 141402Z 00005KT 06/M01 A3026 RMK A01 T00611010  RH  060%=      5-min Rain = 0
KSB1 141403Z 01005KT 06/M01 A3026 RMK A01 T00621010  RH  060%=      5-min Rain = 0
KSB1 141404Z 01005KT 06/M01 A3026 RMK A01 T00631011  RH  059%=      5-min Rain = 0
KSB1 141405Z 02006KT 06/M01 A3027 RMK A01 T00641010  RH  059%=      5-min Rain = 0
KSB1 141406Z 01005KT 07/M01 A3027 RMK A01 T00651010  RH  059%=      5-min Rain = 0
KSB1 141407Z 01005KT 07/M01 A3027 RMK A01 T00651010  RH  059%=      5-min Rain = 0
KSB1 141408Z 01004KT 07/M01 A3027 RMK A01 T00651010  RH  059%=      5-min Rain = 0
KSB1 141409Z 03004KT 07/M01 A3027 RMK A01 T00651010  RH  059%=      5-min Rain = 0
KSB1 141410Z 05004KT 07/M01 A3027 RMK A01 T00651008  RH  059%=      5-min Rain = 0
KSB1 141411Z 05005KT 06/M01 A3027 RMK A01 T00631005  RH  061%=      5-min Rain = 0
KSB1 141412Z 03005KT 06/M00 A3027 RMK A01 T00611004  RH  063%=      5-min Rain = 0
KSB1 141413Z 03005KT 06/M00 A3027 RMK A01 T00601004  RH  063%=      5-min Rain = 0
KSB1 141414Z 07004KT 06/M00 A3027 RMK A01 T00601004  RH  063%=      5-min Rain = 0
KSB1 141415Z 10006KT 06/M00 A3027 RMK A01 T00601004  RH  064%=      5-min Rain = 0
KSB1 141416Z 09007KT 06/M00 A3027 RMK A01 T00591003  RH  064%=      5-min Rain = 0
KSB1 141417Z 09005KT 06/M00 A3028 RMK A01 T00571004  RH  065%=      5-min Rain = 0
KSB1 141418Z 09004KT 06/M00 A3028 RMK A01 T00561004  RH  065%=      5-min Rain = 0
KSB1 141419Z 08004KT 06/M00 A3028 RMK A01 T00551004  RH  065%=      5-min Rain = 0
KSB1 141420Z 08004KT 06/M00 A3028 RMK A01 T00551004  RH  066%=      5-min Rain = 0
KSB1 141421Z 07004KT 06/M00 A3028 RMK A01 T00561003  RH  066%=      5-min Rain = 0
KSB1 141422Z 07004KT 06/M00 A3028 RMK A01 T00561003  RH  066%=      5-min Rain = 0
KSB1 141423Z 06004KT 06/M00 A3028 RMK A01 T00561004  RH  065%=      5-min Rain = 0
KSB1 141424Z 03004KT 06/M00 A3028 RMK A01 T00561004  RH  065%=      5-min Rain = 0
KSB1 141425Z 03005KT 06/M00 A3028 RMK A01 T00571004  RH  065%=      5-min Rain = 0
KSB1 141426Z 02005KT 06/M01 A3028 RMK A01 T00571006  RH  064%=      5-min Rain = 0
KSB1 141427Z 02006KT 06/M01 A3028 RMK A01 T00581005  RH  064%=      5-min Rain = 0
KSB1 141428Z 02006KT 06/M00 A3028 RMK A01 T00581004  RH  064%=      5-min Rain = 0
KSB1 141429Z 02006KT 06/M01 A3028 RMK A01 T00591006  RH  063%=      5-min Rain = 0
KSB1 141430Z 03005KT 06/M01 A3028 RMK A01 T00601008  RH  062%=      5-min Rain = 0
KSB1 141431Z 02005KT 06/M01 A3028 RMK A01 T00601007  RH  062%=      5-min Rain = 0
KSB1 141432Z 03006KT 06/M01 A3028 RMK A01 T00611009  RH  061%=      5-min Rain = 0
KSB1 141433Z 03006KT 06/M01 A3028 RMK A01 T00611010  RH  060%=      5-min Rain = 0
KSB1 141434Z 03005KT 06/M01 A3028 RMK A01 T00611010  RH  060%=      5-min Rain = 0
KSB1 141435Z 03005KT 06/M01 A3028 RMK A01 T00611011  RH  060%=      5-min Rain = 0
KSB1 141436Z 02006KT 06/M01 A3028 RMK A01 T00621011  RH  060%=      5-min Rain = 0
KSB1 141437Z 03005KT 06/M01 A3029 RMK A01 T00621010  RH  060%=      5-min Rain = 0
KSB1 141438Z 03005KT 06/M01 A3029 RMK A01 T00631012  RH  059%=      5-min Rain = 0
KSB1 141439Z 03005KT 06/M01 A3029 RMK A01 T00631013  RH  058%=      5-min Rain = 0
KSB1 141440Z 03005KT 06/M01 A3029 RMK A01 T00631013  RH  058%=      5-min Rain = 0
KSB1 141441Z 03005KT 06/M01 A3029 RMK A01 T00641013  RH  058%=      5-min Rain = 0
KSB1 141442Z 03005KT 07/M02 A3029 RMK A01 T00651015  RH  057%=      5-min Rain = 0
KSB1 141443Z 03005KT 07/M02 A3029 RMK A01 T00651015  RH  057%=      5-min Rain = 0
KSB1 141444Z 03005KT 07/M02 A3029 RMK A01 T00651016  RH  056%=      5-min Rain = 0
KSB1 141445Z 03005KT 07/M02 A3029 RMK A01 T00651017  RH  056%=      5-min Rain = 0
KSB1 141446Z 03004KT 07/M02 A3029 RMK A01 T00661017  RH  055%=      5-min Rain = 0
KSB1 141447Z 03004KT 07/M02 A3029 RMK A01 T00661017  RH  055%=      5-min Rain = 0
KSB1 141448Z 03004KT 07/M02 A303 RMK A01 T00671018  RH  055%=      5-min Rain = 0
KSB1 141449Z 02004KT 07/M02 A303 RMK A01 T00681018  RH  054%=      5-min Rain = 0
KSB1 141450Z 02003KT 07/M02 A303 RMK A01 T00681018  RH  054%=      5-min Rain = 0
KSB1 141451Z 03003KT 07/M02 A303 RMK A01 T00681019  RH  054%=      5-min Rain = 0
KSB1 141452Z 02004KT 07/M02 A303 RMK A01 T00691019  RH  053%=      5-min Rain = 0
KSB1 141453Z 03004KT 07/M02 A303 RMK A01 T00701019  RH  053%=      5-min Rain = 0
KSB1 141454Z 03004KT 07/M02 A303 RMK A01 T00701020  RH  053%=      5-min Rain = 0
KSB1 141455Z 03004KT 07/M02 A303 RMK A01 T00711019  RH  053%=      5-min Rain = 0
KSB1 141456Z 04004KT 07/M02 A303 RMK A01 T00711020  RH  053%=      5-min Rain = 0
KSB1 141457Z 06004KT 07/M02 A303 RMK A01 T00711019  RH  053%=      5-min Rain = 0
KSB1 141458Z 05003KT 07/M02 A303 RMK A01 T00711019  RH  053%=      5-min Rain = 0
KSB1 141459Z 04003KT 07/M02 A303 RMK A01 T00711019  RH  053%=      5-min Rain = 0
KSB1 141500Z 05003KT 07/M02 A303 RMK A01 T00711019  RH  053%=      5-min Rain = 0
KSB1 141501Z 05003KT 07/M02 A303 RMK A01 T00711021  RH  052%=      5-min Rain = 0
KSB1 141502Z 04003KT 07/M02 A303 RMK A01 T00711020  RH  052%=      5-min Rain = 0
KSB1 141503Z 05003KT 07/M02 A303 RMK A01 T00721018  RH  053%=      5-min Rain = 0
KSB1 141504Z 05003KT 07/M02 A303 RMK A01 T00731019  RH  052%=      5-min Rain = 0
KSB1 141505Z 04003KT 07/M02 A303 RMK A01 T00741018  RH  052%=      5-min Rain = 0
KSB1 141506Z 02002KT 07/M02 A3031 RMK A01 T00741019  RH  052%=      5-min Rain = 0
KSB1 141507Z 01002KT 07/M02 A3031 RMK A01 T00741018  RH  052%=      5-min Rain = 0
KSB1 141508Z 02001KT 07/M02 A3031 RMK A01 T00741018  RH  052%=      5-min Rain = 0
KSB1 141509Z 05002KT 07/M02 A3031 RMK A01 T00741018  RH  052%=      5-min Rain = 0
KSB1 141510Z 05001KT 08/M02 A3031 RMK A01 T00751018  RH  052%=      5-min Rain = 0
KSB1 141511Z 03001KT 08/M02 A3031 RMK A01 T00761017  RH  051%=      5-min Rain = 0
KSB1 141512Z 01002KT 08/M02 A3031 RMK A01 T00771018  RH  051%=      5-min Rain = 0
KSB1 141513Z 03001KT 08/M02 A3031 RMK A01 T00771019  RH  051%=      5-min Rain = 0
KSB1 141514Z 03000KT 08/M02 A3031 RMK A01 T00771018  RH  051%=      5-min Rain = 0
KSB1 141515Z 02001KT 08/M02 A3031 RMK A01 T00771018  RH  051%=      5-min Rain = 0
KSB1 141516Z 01001KT 08/M02 A3031 RMK A01 T00781018  RH  050%=      5-min Rain = 0
KSB1 141517Z 03000KT 08/M02 A3031 RMK A01 T00791018  RH  050%=      5-min Rain = 0
KSB1 141518Z 02001KT 08/M02 A3031 RMK A01 T00791018  RH  050%=      5-min Rain = 0
KSB1 141519Z 00000KT 08/M02 A3032 RMK A01 T00801018  RH  050%=      5-min Rain = 0
KSB1 141520Z 07000KT 08/M02 A3032 RMK A01 T00821016  RH  050%=      5-min Rain = 0
KSB1 141521Z 04001KT 09/M02 A3032 RMK A01 T00851015  RH  049%=      5-min Rain = 0
KSB1 141522Z 10001KT 09/M01 A3032 RMK A01 T00861014  RH  049%=      5-min Rain = 0
KSB1 141523Z 06002KT 09/M02 A3032 RMK A01 T00871015  RH  049%=      5-min Rain = 0
KSB1 141524Z 07003KT 09/M02 A3032 RMK A01 T00881015  RH  048%=      5-min Rain = 0
KSB1 141525Z 08002KT 09/M02 A3032 RMK A01 T00871016  RH  048%=      5-min Rain = 0
KSB1 141526Z 10003KT 09/M02 A3032 RMK A01 T00851016  RH  049%=      5-min Rain = 0
KSB1 141527Z 09003KT 09/M02 A3032 RMK A01 T00851015  RH  049%=      5-min Rain = 0
KSB1 141528Z 12003KT 09/M02 A3032 RMK A01 T00861015  RH  049%=      5-min Rain = 0
KSB1 141529Z 12002KT 09/M02 A3032 RMK A01 T00871015  RH  049%=      5-min Rain = 0
KSB1 141530Z 11003KT 09/M02 A3032 RMK A01 T00871015  RH  049%=      5-min Rain = 0
KSB1 141531Z 11003KT 09/M01 A3032 RMK A01 T00871014  RH  049%=      5-min Rain = 0
KSB1 141532Z 10003KT 09/M01 A3032 RMK A01 T00891013  RH  049%=      5-min Rain = 0
KSB1 141533Z 09003KT 09/M01 A3032 RMK A01 T00891014  RH  048%=      5-min Rain = 0
KSB1 141534Z 10003KT 09/M02 A3032 RMK A01 T00881015  RH  048%=      5-min Rain = 0
KSB1 141535Z 09002KT 09/M02 A3032 RMK A01 T00871015  RH  049%=      5-min Rain = 0
KSB1 141536Z 10003KT 09/M02 A3032 RMK A01 T00871015  RH  049%=      5-min Rain = 0
KSB1 141537Z 09004KT 09/M01 A3033 RMK A01 T00881014  RH  049%=      5-min Rain = 0
KSB1 141538Z 10003KT 09/M01 A3033 RMK A01 T00881014  RH  049%=      5-min Rain = 0
KSB1 141539Z 09003KT 09/M01 A3033 RMK A01 T00881013  RH  049%=      5-min Rain = 0
KSB1 141540Z 09005KT 09/M01 A3033 RMK A01 T00901012  RH  049%=      5-min Rain = 0
KSB1 141541Z 09005KT 09/M01 A3033 RMK A01 T00901014  RH  048%=      5-min Rain = 0
KSB1 141542Z 11004KT 09/M01 A3033 RMK A01 T00901013  RH  048%=      5-min Rain = 0
KSB1 141543Z 11005KT 09/M01 A3033 RMK A01 T00891014  RH  048%=      5-min Rain = 0
KSB1 141544Z 10004KT 09/M01 A3033 RMK A01 T00891014  RH  048%=      5-min Rain = 0
KSB1 141545Z 10003KT 09/M01 A3033 RMK A01 T00901013  RH  049%=      5-min Rain = 0
KSB1 141546Z 10005KT 09/M01 A3033 RMK A01 T00911012  RH  048%=      5-min Rain = 0
KSB1 141547Z 11004KT 09/M01 A3033 RMK A01 T00921013  RH  048%=      5-min Rain = 0
KSB1 141548Z 10005KT 09/M01 A3033 RMK A01 T00931012  RH  048%=      5-min Rain = 0
KSB1 141549Z 10006KT 09/M01 A3033 RMK A01 T00931013  RH  047%=      5-min Rain = 0
KSB1 141550Z 11005KT 09/M01 A3033 RMK A01 T00941012  RH  048%=      5-min Rain = 0
KSB1 141551Z 11005KT 09/M01 A3033 RMK A01 T00941013  RH  047%=      5-min Rain = 0
KSB1 141552Z 11004KT 09/M01 A3033 RMK A01 T00941014  RH  047%=      5-min Rain = 0
KSB1 141553Z 11004KT 09/M01 A3033 RMK A01 T00941013  RH  047%=      5-min Rain = 0
KSB1 141554Z 11004KT 09/M01 A3033 RMK A01 T00941013  RH  047%=      5-min Rain = 0
KSB1 141555Z 11005KT 10/M02 A3033 RMK A01 T00951015  RH  046%=      5-min Rain = 0
KSB1 141556Z 11005KT 10/M02 A3033 RMK A01 T00951016  RH  046%=      5-min Rain = 0
KSB1 141557Z 11004KT 09/M02 A3034 RMK A01 T00941016  RH  046%=      5-min Rain = 0
KSB1 141558Z 11004KT 09/M02 A3034 RMK A01 T00931017  RH  046%=      5-min Rain = 0
KSB1 141559Z 09006KT 09/M02 A3034 RMK A01 T00931016  RH  047%=      5-min Rain = 0
KSB1 141600Z 08005KT 09/M02 A3034 RMK A01 T00941015  RH  046%=      5-min Rain = 0
KSB1 141601Z 09005KT 09/M02 A3034 RMK A01 T00941016  RH  046%=      5-min Rain = 0
KSB1 141602Z 12004KT 10/M01 A3034 RMK A01 T00951014  RH  046%=      5-min Rain = 0
KSB1 141603Z 10005KT 10/M01 A3034 RMK A01 T00961013  RH  046%=      5-min Rain = 0
KSB1 141604Z 10006KT 10/M01 A3034 RMK A01 T00981014  RH  045%=      5-min Rain = 0
KSB1 141605Z 11005KT 10/M02 A3034 RMK A01 T00981017  RH  045%=      5-min Rain = 0
KSB1 141606Z 12004KT 10/M02 A3034 RMK A01 T00961017  RH  045%=      5-min Rain = 0
KSB1 141607Z 12004KT 10/M02 A3034 RMK A01 T00971017  RH  045%=      5-min Rain = 0
KSB1 141608Z 13005KT 10/M02 A3034 RMK A01 T00981017  RH  045%=      5-min Rain = 0
KSB1 141609Z 11005KT 10/M02 A3034 RMK A01 T00991019  RH  044%=      5-min Rain = 0
KSB1 141610Z 11005KT 10/M02 A3034 RMK A01 T00991021  RH  043%=      5-min Rain = 0
KSB1 141611Z 09004KT 10/M02 A3034 RMK A01 T00971019  RH  044%=      5-min Rain = 0
KSB1 141612Z 12004KT 10/M02 A3034 RMK A01 T00991016  RH  045%=      5-min Rain = 0
KSB1 141613Z 12005KT 10/M02 A3034 RMK A01 T01011018  RH  043%=      5-min Rain = 0
KSB1 141614Z 12007KT 10/M02 A3034 RMK A01 T01021018  RH  043%=      5-min Rain = 0
KSB1 141615Z 12006KT 10/M02 A3034 RMK A01 T01031019  RH  043%=      5-min Rain = 0
KSB1 141616Z 10004KT 10/M02 A3034 RMK A01 T01041018  RH  043%=      5-min Rain = 0
KSB1 141617Z 11004KT 11/M02 A3034 RMK A01 T01061016  RH  043%=      5-min Rain = 0
KSB1 141618Z 10006KT 11/M02 A3034 RMK A01 T01061017  RH  042%=      5-min Rain = 0
KSB1 141619Z 10006KT 11/M02 A3034 RMK A01 T01061020  RH  041%=      5-min Rain = 0
KSB1 141620Z 12006KT 11/M02 A3034 RMK A01 T01061020  RH  041%=      5-min Rain = 0
KSB1 141621Z 12004KT 11/M02 A3034 RMK A01 T01061022  RH  040%=      5-min Rain = 0
KSB1 141622Z 11004KT 11/M02 A3034 RMK A01 T01061023  RH  041%=      5-min Rain = 0
KSB1 141623Z 10004KT 11/M02 A3034 RMK A01 T01061022  RH  041%=      5-min Rain = 0
KSB1 141624Z 12005KT 11/M02 A3034 RMK A01 T01081021  RH  040%=      5-min Rain = 0
KSB1 141625Z 11005KT 11/M02 A3034 RMK A01 T01091023  RH  040%=      5-min Rain = 0
KSB1 141626Z 10007KT 11/M02 A3034 RMK A01 T01091022  RH  040%=      5-min Rain = 0
KSB1 141627Z 09006KT 11/M02 A3034 RMK A01 T01081022  RH  040%=      5-min Rain = 0
KSB1 141628Z 10005KT 11/M02 A3034 RMK A01 T01081022  RH  040%=      5-min Rain = 0
KSB1 141629Z 09006KT 11/M02 A3034 RMK A01 T01081023  RH  040%=      5-min Rain = 0
KSB1 141630Z 10006KT 11/M03 A3034 RMK A01 T01071025  RH  039%=      5-min Rain = 0
KSB1 141631Z 09004KT 11/M02 A3034 RMK A01 T01071024  RH  040%=      5-min Rain = 0
KSB1 141632Z 11002KT 11/M02 A3034 RMK A01 T01071024  RH  040%=      5-min Rain = 0
KSB1 141633Z 08004KT 11/M03 A3034 RMK A01 T01061026  RH  040%=      5-min Rain = 0
KSB1 141634Z 10007KT 11/M03 A3034 RMK A01 T01081025  RH  040%=      5-min Rain = 0
KSB1 141635Z 10008KT 11/M03 A3034 RMK A01 T01081026  RH  039%=      5-min Rain = 0
KSB1 141636Z 09007KT 11/M03 A3034 RMK A01 T01101025  RH  039%=      5-min Rain = 0
KSB1 141637Z 08008KT 11/M03 A3034 RMK A01 T01111026  RH  038%=      5-min Rain = 0
KSB1 141638Z 07007KT 11/M03 A3034 RMK A01 T01101026  RH  038%=      5-min Rain = 0
KSB1 141639Z 07007KT 11/M03 A3034 RMK A01 T01101026  RH  039%=      5-min Rain = 0
KSB1 141640Z 07005KT 11/M03 A3034 RMK A01 T01101027  RH  038%=      5-min Rain = 0
KSB1 141641Z 09006KT 11/M03 A3034 RMK A01 T01091027  RH  039%=      5-min Rain = 0
KSB1 141642Z 10007KT 11/M03 A3034 RMK A01 T01101026  RH  039%=      5-min Rain = 0
KSB1 141643Z 12008KT 11/M02 A3034 RMK A01 T01141024  RH  038%=      5-min Rain = 0
KSB1 141644Z 12009KT 12/M03 A3034 RMK A01 T01161025  RH  037%=      5-min Rain = 0
KSB1 141645Z 11006KT 12/M03 A3034 RMK A01 T01161026  RH  037%=      5-min Rain = 0
KSB1 141646Z 09005KT 12/M03 A3035 RMK A01 T01161025  RH  037%=      5-min Rain = 0
KSB1 141647Z 11005KT 12/M03 A3035 RMK A01 T01161026  RH  037%=      5-min Rain = 0
KSB1 141648Z 12006KT 11/M03 A3035 RMK A01 T01141029  RH  037%=      5-min Rain = 0
KSB1 141649Z 11007KT 11/M03 A3035 RMK A01 T01141026  RH  038%=      5-min Rain = 0
KSB1 141650Z 08007KT 12/M02 A3035 RMK A01 T01171024  RH  037%=      5-min Rain = 0
KSB1 141651Z 07006KT 12/M03 A3035 RMK A01 T01181026  RH  037%=      5-min Rain = 0
KSB1 141652Z 07006KT 12/M03 A3035 RMK A01 T01151028  RH  037%=      5-min Rain = 0
KSB1 141653Z 05006KT 11/M03 A3035 RMK A01 T01141031  RH  036%=      5-min Rain = 0
KSB1 141654Z 06008KT 12/M03 A3035 RMK A01 T01171032  RH  035%=      5-min Rain = 0
KSB1 141655Z 06007KT 12/M04 A3035 RMK A01 T01181035  RH  034%=      5-min Rain = 0
KSB1 141656Z 08005KT 12/M04 A3035 RMK A01 T01151037  RH  034%=      5-min Rain = 0
KSB1 141657Z 07005KT 11/M04 A3035 RMK A01 T01131038  RH  035%=      5-min Rain = 0
KSB1 141658Z 06006KT 11/M04 A3035 RMK A01 T01121037  RH  035%=      5-min Rain = 0
KSB1 141659Z 08005KT 11/M04 A3035 RMK A01 T01131035  RH  035%=      5-min Rain = 0
KSB1 141700Z 07007KT 12/M03 A3035 RMK A01 T01161033  RH  035%=      5-min Rain = 0
KSB1 141701Z 08007KT 12/M03 A3035 RMK A01 T01171032  RH  035%=      5-min Rain = 0
KSB1 141702Z 11008KT 12/M03 A3035 RMK A01 T01201030  RH  035%=      5-min Rain = 0
KSB1 141703Z 11006KT 12/M03 A3035 RMK A01 T01201031  RH  035%=      5-min Rain = 0
KSB1 141704Z 11009KT 12/M03 A3035 RMK A01 T01201031  RH  035%=      5-min Rain = 0
KSB1 141705Z 10008KT 12/M03 A3035 RMK A01 T01201030  RH  035%=      5-min Rain = 0
KSB1 141706Z 12006KT 12/M03 A3035 RMK A01 T01191030  RH  035%=      5-min Rain = 0
KSB1 141707Z 12006KT 12/M03 A3035 RMK A01 T01191030  RH  035%=      5-min Rain = 0
KSB1 141708Z 09006KT 12/M03 A3035 RMK A01 T01191031  RH  035%=      5-min Rain = 0
KSB1 141709Z 07009KT 12/M03 A3035 RMK A01 T01201030  RH  035%=      5-min Rain = 0
KSB1 141710Z 06009KT 12/M03 A3035 RMK A01 T01211034  RH  034%=      5-min Rain = 0
KSB1 141711Z 06008KT 12/M03 A3035 RMK A01 T01211034  RH  034%=      5-min Rain = 0
KSB1 141712Z 05008KT 12/M03 A3035 RMK A01 T01221034  RH  033%=      5-min Rain = 0
KSB1 141713Z 07007KT 12/M04 A3035 RMK A01 T01221036  RH  033%=      5-min Rain = 0
KSB1 141714Z 07008KT 12/M04 A3035 RMK A01 T01201036  RH  034%=      5-min Rain = 0
KSB1 141715Z 07011KT 12/M04 A3035 RMK A01 T01201035  RH  034%=      5-min Rain = 0
KSB1 141716Z 07010KT 12/M04 A3035 RMK A01 T01211035  RH  033%=      5-min Rain = 0
KSB1 141717Z 07010KT 12/M04 A3035 RMK A01 T01211036  RH  033%=      5-min Rain = 0
KSB1 141718Z 07010KT 12/M04 A3035 RMK A01 T01201036  RH  033%=      5-min Rain = 0
KSB1 141719Z 07008KT 12/M04 A3035 RMK A01 T01201035  RH  034%=      5-min Rain = 0
KSB1 141720Z 08005KT 12/M04 A3035 RMK A01 T01201037  RH  033%=      5-min Rain = 0
KSB1 141721Z 07007G12KT 12/M04 A3035 RMK A01 T01171038  RH  034%=      5-min Rain = 0
KSB1 141722Z 07010KT 12/M03 A3035 RMK A01 T01181034  RH  034%=      5-min Rain = 0
KSB1 141723Z 06008KT 12/M03 A3035 RMK A01 T01201034  RH  034%=      5-min Rain = 0
KSB1 141724Z 05007KT 12/M04 A3035 RMK A01 T01201035  RH  034%=      5-min Rain = 0
KSB1 141725Z 07009KT 12/M03 A3035 RMK A01 T01191034  RH  034%=      5-min Rain = 0
KSB1 141726Z 05011KT 12/M03 A3035 RMK A01 T01191033  RH  034%=      5-min Rain = 0
KSB1 141727Z 06013KT 12/M03 A3035 RMK A01 T01211032  RH  034%=      5-min Rain = 0
KSB1 141728Z 08010KT 12/M03 A3035 RMK A01 T01231032  RH  034%=      5-min Rain = 0
KSB1 141729Z 07010KT 12/M03 A3035 RMK A01 T01241032  RH  034%=      5-min Rain = 0
KSB1 141730Z 08010KT 12/M03 A3035 RMK A01 T01241034  RH  033%=      5-min Rain = 0
KSB1 141731Z 08009KT 12/M03 A3035 RMK A01 T01221034  RH  033%=      5-min Rain = 0
KSB1 141732Z 06008KT 12/M03 A3035 RMK A01 T01211033  RH  034%=      5-min Rain = 0
KSB1 141733Z 05012KT 12/M03 A3035 RMK A01 T01221032  RH  034%=      5-min Rain = 0
KSB1 141734Z 06009KT 12/M03 A3035 RMK A01 T01231032  RH  034%=      5-min Rain = 0
KSB1 141735Z 06007KT 12/M03 A3035 RMK A01 T01221034  RH  033%=      5-min Rain = 0
KSB1 141736Z 05007KT 12/M03 A3035 RMK A01 T01211033  RH  034%=      5-min Rain = 0
KSB1 141737Z 05008KT 12/M04 A3035 RMK A01 T01201035  RH  034%=      5-min Rain = 0
KSB1 141738Z 08010KT 12/M03 A3035 RMK A01 T01221031  RH  034%=      5-min Rain = 0
KSB1 141739Z 09009KT 13/M03 A3035 RMK A01 T01261030  RH  033%=      5-min Rain = 0
KSB1 141740Z 10006KT 13/M04 A3035 RMK A01 T01251035  RH  033%=      5-min Rain = 0
KSB1 141741Z 09006KT 12/M03 A3035 RMK A01 T01231034  RH  033%=      5-min Rain = 0
KSB1 141742Z 06009KT 12/M03 A3035 RMK A01 T01241031  RH  034%=      5-min Rain = 0
KSB1 141743Z 07014KT 13/M03 A3035 RMK A01 T01271030  RH  033%=      5-min Rain = 0
KSB1 141744Z 08012KT 13/M03 A3035 RMK A01 T01271034  RH  033%=      5-min Rain = 0
KSB1 141745Z 08010KT 12/M04 A3035 RMK A01 T01231035  RH  033%=      5-min Rain = 0
KSB1 141746Z 07009KT 12/M03 A3035 RMK A01 T01221034  RH  033%=      5-min Rain = 0
KSB1 141747Z 06009KT 12/M03 A3035 RMK A01 T01211034  RH  034%=      5-min Rain = 0
KSB1 141748Z 07009KT 12/M03 A3035 RMK A01 T01221033  RH  034%=      5-min Rain = 0
KSB1 141749Z 06007KT 12/M03 A3035 RMK A01 T01221033  RH  034%=      5-min Rain = 0
KSB1 141750Z 07006KT 12/M03 A3035 RMK A01 T01221032  RH  034%=      5-min Rain = 0
KSB1 141751Z 07007G13KT 12/M03 A3035 RMK A01 T01231032  RH  034%=      5-min Rain = 0
KSB1 141752Z 09011KT 13/M03 A3035 RMK A01 T01261030  RH  034%=      5-min Rain = 0
KSB1 141753Z 08011KT 13/M03 A3035 RMK A01 T01281031  RH  033%=      5-min Rain = 0
KSB1 141754Z 08011KT 13/M03 A3035 RMK A01 T01281032  RH  033%=      5-min Rain = 0
KSB1 141755Z 07007KT 13/M04 A3035 RMK A01 T01251035  RH  033%=      5-min Rain = 0
KSB1 141756Z 08008KT 12/M03 A3035 RMK A01 T01231033  RH  033%=      5-min Rain = 0
KSB1 141757Z 08006KT 12/M03 A3035 RMK A01 T01241033  RH  033%=      5-min Rain = 0
KSB1 141758Z 07009G14KT 12/M03 A3035 RMK A01 T01241034  RH  033%=      5-min Rain = 0
KSB1 141759Z 08010KT 12/M03 A3035 RMK A01 T01231032  RH  034%=      5-min Rain = 0
KSB1 141800Z 08008KT 13/M03 A3035 RMK A01 T01251032  RH  033%=      5-min Rain = 0
KSB1 141801Z 10007KT 13/M03 A3035 RMK A01 T01271032  RH  033%=      5-min Rain = 0
KSB1 141802Z 09006KT 13/M03 A3035 RMK A01 T01261034  RH  033%=      5-min Rain = 0
KSB1 141803Z 06009KT 13/M03 A3035 RMK A01 T01261031  RH  033%=      5-min Rain = 0
KSB1 141804Z 07008KT 13/M03 A3035 RMK A01 T01261032  RH  033%=      5-min Rain = 0
KSB1 141805Z 06006KT 13/M03 A3035 RMK A01 T01261032  RH  033%=      5-min Rain = 0
KSB1 141806Z 05007KT 13/M03 A3035 RMK A01 T01261033  RH  033%=      5-min Rain = 0
KSB1 141807Z 05009KT 13/M03 A3035 RMK A01 T01271031  RH  033%=      5-min Rain = 0
KSB1 141808Z 07009G14KT 13/M03 A3035 RMK A01 T01281032  RH  033%=      5-min Rain = 0
KSB1 141809Z 09007KT 13/M03 A3035 RMK A01 T01281031  RH  033%=      5-min Rain = 0
KSB1 141810Z 09009KT 13/M03 A3035 RMK A01 T01291031  RH  033%=      5-min Rain = 0
KSB1 141811Z 08009KT 13/M03 A3035 RMK A01 T01301030  RH  033%=      5-min Rain = 0
KSB1 141812Z 07008KT 13/M03 A3035 RMK A01 T01301031  RH  032%=      5-min Rain = 0
KSB1 141813Z 07008KT 13/M03 A3035 RMK A01 T01301032  RH  032%=      5-min Rain = 0
KSB1 141814Z 06009KT 13/M03 A3035 RMK A01 T01291031  RH  033%=      5-min Rain = 0
KSB1 141815Z 07011KT 13/M03 A3035 RMK A01 T01281032  RH  033%=      5-min Rain = 0
KSB1 141816Z 07010KT 13/M03 A3035 RMK A01 T01271033  RH  033%=      5-min Rain = 0
KSB1 141817Z 06008KT 13/M03 A3035 RMK A01 T01281033  RH  032%=      5-min Rain = 0
KSB1 141818Z 05006KT 13/M03 A3035 RMK A01 T01251034  RH  033%=      5-min Rain = 0
KSB1 141819Z 07009KT 12/M03 A3034 RMK A01 T01241033  RH  033%=      5-min Rain = 0
KSB1 141820Z 05008KT 12/M03 A3034 RMK A01 T01241034  RH  033%=      5-min Rain = 0
KSB1 141821Z 05005KT 12/M03 A3034 RMK A01 T01231034  RH  033%=      5-min Rain = 0
KSB1 141822Z 04005KT 12/M03 A3034 RMK A01 T01231032  RH  034%=      5-min Rain = 0
KSB1 141823Z 08008KT 13/M03 A3034 RMK A01 T01251032  RH  033%=      5-min Rain = 0
KSB1 141824Z 10008KT 13/M03 A3035 RMK A01 T01261032  RH  033%=      5-min Rain = 0
KSB1 141825Z 10006KT 13/M03 A3035 RMK A01 T01251033  RH  033%=      5-min Rain = 0
KSB1 141826Z 10004KT 12/M03 A3034 RMK A01 T01241034  RH  033%=      5-min Rain = 0
KSB1 141827Z 10002KT 12/M03 A3034 RMK A01 T01231034  RH  033%=      5-min Rain = 0
KSB1 141828Z 07003KT 12/M03 A3034 RMK A01 T01241031  RH  034%=      5-min Rain = 0
KSB1 141829Z 05008KT 13/M03 A3034 RMK A01 T01261032  RH  033%=      5-min Rain = 0
KSB1 141830Z 06010KT 13/M03 A3034 RMK A01 T01271031  RH  033%=      5-min Rain = 0
KSB1 141831Z 07009KT 13/M03 A3034 RMK A01 T01281031  RH  033%=      5-min Rain = 0
KSB1 141832Z 08010KT 13/M03 A3034 RMK A01 T01311030  RH  033%=      5-min Rain = 0
KSB1 141833Z 08009KT 13/M03 A3034 RMK A01 T01321031  RH  032%=      5-min Rain = 0
KSB1 141834Z 08011KT 13/M03 A3034 RMK A01 T01301033  RH  032%=      5-min Rain = 0
KSB1 141835Z 06010KT 13/M03 A3034 RMK A01 T01291032  RH  033%=      5-min Rain = 0
KSB1 141836Z 07011KT 13/M03 A3034 RMK A01 T01311031  RH  032%=      5-min Rain = 0
KSB1 141837Z 06008KT 13/M03 A3034 RMK A01 T01301033  RH  032%=      5-min Rain = 0
KSB1 141838Z 05008KT 13/M03 A3034 RMK A01 T01301032  RH  032%=      5-min Rain = 0
KSB1 141839Z 08005KT 13/M03 A3034 RMK A01 T01311031  RH  032%=      5-min Rain = 0
KSB1 141840Z 07003KT 13/M03 A3034 RMK A01 T01301033  RH  032%=      5-min Rain = 0
KSB1 141841Z 12005KT 13/M03 A3034 RMK A01 T01291031  RH  033%=      5-min Rain = 0
KSB1 141842Z 12008KT 13/M03 A3034 RMK A01 T01301028  RH  033%=      5-min Rain = 0
KSB1 141843Z 13008KT 13/M03 A3034 RMK A01 T01321026  RH  033%=      5-min Rain = 0
KSB1 141844Z 12008KT 13/M03 A3034 RMK A01 T01331028  RH  033%=      5-min Rain = 0
KSB1 141845Z 13007KT 13/M03 A3034 RMK A01 T01301030  RH  033%=      5-min Rain = 0
KSB1 141846Z 13007KT 13/M03 A3034 RMK A01 T01281030  RH  033%=      5-min Rain = 0
KSB1 141847Z 13005KT 13/M03 A3034 RMK A01 T01281030  RH  033%=      5-min Rain = 0
KSB1 141848Z 14006KT 13/M03 A3034 RMK A01 T01281029  RH  033%=      5-min Rain = 0
KSB1 141849Z 15010KT 13/M03 A3034 RMK A01 T01331025  RH  033%=      5-min Rain = 0
KSB1 141850Z 14010KT 14/M03 A3034 RMK A01 T01351028  RH  032%=      5-min Rain = 0
KSB1 141851Z 14009KT 13/M03 A3034 RMK A01 T01311031  RH  032%=      5-min Rain = 0
KSB1 141852Z 13013KT 13/M03 A3034 RMK A01 T01301029  RH  033%=      5-min Rain = 0
KSB1 141853Z 10012KT 13/M03 A3034 RMK A01 T01311027  RH  033%=      5-min Rain = 0
KSB1 141854Z 10014KT 13/M03 A3033 RMK A01 T01341028  RH  032%=      5-min Rain = 0
KSB1 141855Z 09008G13KT 13/M03 A3034 RMK A01 T01321030  RH  032%=      5-min Rain = 0
KSB1 141856Z 09008KT 13/M03 A3034 RMK A01 T01301030  RH  033%=      5-min Rain = 0
KSB1 141857Z 13010KT 13/M03 A3034 RMK A01 T01291028  RH  033%=      5-min Rain = 0
KSB1 141858Z 13010KT 13/M03 A3034 RMK A01 T01311028  RH  033%=      5-min Rain = 0
KSB1 141859Z 15009KT 13/M03 A3033 RMK A01 T01311030  RH  033%=      5-min Rain = 0
KSB1 141900Z 16011KT 13/M03 A3033 RMK A01 T01301029  RH  033%=      5-min Rain = 0
KSB1 141901Z 13012KT 13/M03 A3033 RMK A01 T01331025  RH  033%=      5-min Rain = 0
KSB1 141902Z 13013KT 14/M03 A3033 RMK A01 T01381026  RH  032%=      5-min Rain = 0
KSB1 141903Z 13011G16KT 14/M03 A3033 RMK A01 T01351029  RH  032%=      5-min Rain = 0
KSB1 141904Z 13012KT 13/M03 A3033 RMK A01 T01341029  RH  032%=      5-min Rain = 0
KSB1 141905Z 13010KT 13/M03 A3033 RMK A01 T01321030  RH  032%=      5-min Rain = 0
KSB1 141906Z 14009KT 13/M03 A3033 RMK A01 T01321028  RH  033%=      5-min Rain = 0
KSB1 141907Z 14006KT 13/M03 A3033 RMK A01 T01341029  RH  032%=      5-min Rain = 0
KSB1 141908Z 13004KT 13/M03 A3033 RMK A01 T01331028  RH  032%=      5-min Rain = 0
KSB1 141909Z 13009KT 13/M03 A3033 RMK A01 T01321028  RH  033%=      5-min Rain = 0
KSB1 141910Z 14010KT 13/M03 A3033 RMK A01 T01321028  RH  033%=      5-min Rain = 0
KSB1 141911Z 16007KT 13/M03 A3033 RMK A01 T01331028  RH  033%=      5-min Rain = 0
KSB1 141912Z 15005KT 13/M03 A3033 RMK A01 T01311030  RH  033%=      5-min Rain = 0
KSB1 141913Z 13009KT 13/M03 A3033 RMK A01 T01301029  RH  033%=      5-min Rain = 0
KSB1 141914Z 10010KT 13/M03 A3033 RMK A01 T01321026  RH  033%=      5-min Rain = 0
KSB1 141915Z 12009KT 13/M03 A3033 RMK A01 T01341026  RH  033%=      5-min Rain = 0
KSB1 141916Z 15009KT 14/M03 A3033 RMK A01 T01351027  RH  033%=      5-min Rain = 0
KSB1 141917Z 14010KT 13/M03 A3033 RMK A01 T01341027  RH  033%=      5-min Rain = 0
KSB1 141918Z 14009KT 14/M03 A3033 RMK A01 T01371025  RH  033%=      5-min Rain = 0
KSB1 141919Z 13011KT 14/M03 A3033 RMK A01 T01391025  RH  032%=      5-min Rain = 0
KSB1 141920Z 14011KT 14/M02 A3033 RMK A01 T01411024  RH  032%=      5-min Rain = 0
KSB1 141921Z 14010KT 14/M03 A3033 RMK A01 T01421026  RH  031%=      5-min Rain = 0
KSB1 141922Z 13009KT 14/M03 A3033 RMK A01 T01401028  RH  031%=      5-min Rain = 0
KSB1 141923Z 12009KT 14/M03 A3033 RMK A01 T01381027  RH  032%=      5-min Rain = 0
KSB1 141924Z 13007KT 14/M03 A3033 RMK A01 T01361028  RH  032%=      5-min Rain = 0
KSB1 141925Z 12008KT 14/M03 A3033 RMK A01 T01361026  RH  032%=      5-min Rain = 0
KSB1 141926Z 12009KT 14/M03 A3033 RMK A01 T01371026  RH  032%=      5-min Rain = 0
KSB1 141927Z 12009KT 14/M03 A3033 RMK A01 T01381025  RH  032%=      5-min Rain = 0
KSB1 141928Z 09009KT 14/M03 A3033 RMK A01 T01391026  RH  032%=      5-min Rain = 0
KSB1 141929Z 06010G15KT 14/M03 A3033 RMK A01 T01401028  RH  031%=      5-min Rain = 0
KSB1 141930Z 08011G16KT 14/M03 A3033 RMK A01 T01411028  RH  031%=      5-min Rain = 0
KSB1 141931Z 09013KT 14/M03 A3033 RMK A01 T01411026  RH  031%=      5-min Rain = 0
KSB1 141932Z 08010KT 14/M03 A3033 RMK A01 T01411026  RH  032%=      5-min Rain = 0
KSB1 141933Z 11013KT 14/M03 A3033 RMK A01 T01401026  RH  032%=      5-min Rain = 0
KSB1 141934Z 12011KT 14/M03 A3033 RMK A01 T01361029  RH  032%=      5-min Rain = 0
KSB1 141935Z 12007KT 13/M03 A3033 RMK A01 T01321030  RH  032%=      5-min Rain = 0
KSB1 141936Z 11006KT 13/M03 A3033 RMK A01 T01291029  RH  033%=      5-min Rain = 0
KSB1 141937Z 10007KT 13/M03 A3032 RMK A01 T01311026  RH  033%=      5-min Rain = 0
KSB1 141938Z 10010KT 14/M03 A3032 RMK A01 T01351026  RH  033%=      5-min Rain = 0
KSB1 141939Z 09010KT 14/M03 A3032 RMK A01 T01361026  RH  032%=      5-min Rain = 0
KSB1 141940Z 11008KT 14/M03 A3033 RMK A01 T01381025  RH  032%=      5-min Rain = 0
KSB1 141941Z 13006KT 14/M03 A3032 RMK A01 T01391026  RH  032%=      5-min Rain = 0
KSB1 141942Z 13011KT 14/M03 A3032 RMK A01 T01371026  RH  032%=      5-min Rain = 0
KSB1 141943Z 11010KT 14/M03 A3032 RMK A01 T01391025  RH  032%=      5-min Rain = 0
KSB1 141944Z 11009KT 14/M03 A3032 RMK A01 T01401025  RH  032%=      5-min Rain = 0
KSB1 141945Z 10008KT 14/M03 A3032 RMK A01 T01371028  RH  032%=      5-min Rain = 0
KSB1 141946Z 10010KT 13/M03 A3032 RMK A01 T01341028  RH  032%=      5-min Rain = 0
KSB1 141947Z 09010KT 14/M03 A3032 RMK A01 T01371031  RH  031%=      5-min Rain = 0
KSB1 141948Z 10010KT 14/M03 A3032 RMK A01 T01371032  RH  031%=      5-min Rain = 0
KSB1 141949Z 12011KT 14/M03 A3032 RMK A01 T01361029  RH  032%=      5-min Rain = 0
KSB1 141950Z 10011KT 14/M03 A3032 RMK A01 T01351027  RH  032%=      5-min Rain = 0
KSB1 141951Z 07010KT 14/M03 A3032 RMK A01 T01391031  RH  030%=      5-min Rain = 0
KSB1 141952Z 07008KT 14/M04 A3032 RMK A01 T01381036  RH  030%=      5-min Rain = 0
KSB1 141953Z 05007KT 14/M04 A3032 RMK A01 T01381035  RH  030%=      5-min Rain = 0
KSB1 141954Z 04007KT 14/M04 A3032 RMK A01 T01391036  RH  030%=      5-min Rain = 0
KSB1 141955Z 05009KT 14/M04 A3032 RMK A01 T01391035  RH  030%=      5-min Rain = 0
KSB1 141956Z 07010KT 14/M04 A3032 RMK A01 T01411036  RH  029%=      5-min Rain = 0
KSB1 141957Z 06009KT 14/M04 A3032 RMK A01 T01421038  RH  029%=      5-min Rain = 0
KSB1 141958Z 07008KT 14/M04 A3032 RMK A01 T01391039  RH  029%=      5-min Rain = 0
KSB1 141959Z 06009KT 14/M04 A3032 RMK A01 T01381037  RH  029%=      5-min Rain = 0
KSB1 142000Z 06010KT 14/M04 A3032 RMK A01 T01391036  RH  029%=      5-min Rain = 0
KSB1 142001Z 07010KT 14/M04 A3032 RMK A01 T01391036  RH  030%=      5-min Rain = 0
KSB1 142002Z 08007KT 14/M04 A3032 RMK A01 T01391038  RH  029%=      5-min Rain = 0
KSB1 142003Z 07007KT 14/M04 A3032 RMK A01 T01391036  RH  029%=      5-min Rain = 0
KSB1 142004Z 06007KT 14/M04 A3032 RMK A01 T01411035  RH  029%=      5-min Rain = 0
KSB1 142005Z 08009KT 14/M04 A3032 RMK A01 T01411036  RH  029%=      5-min Rain = 0
KSB1 142006Z 09011KT 14/M03 A3032 RMK A01 T01421034  RH  029%=      5-min Rain = 0
KSB1 142007Z 08010KT 14/M03 A3032 RMK A01 T01421033  RH  030%=      5-min Rain = 0
KSB1 142008Z 07009KT 14/M03 A3032 RMK A01 T01411034  RH  030%=      5-min Rain = 0
KSB1 142009Z 07008KT 14/M03 A3032 RMK A01 T01401034  RH  030%=      5-min Rain = 0
KSB1 142010Z 07007KT 14/M04 A3032 RMK A01 T01371035  RH  030%=      5-min Rain = 0
KSB1 142011Z 10006KT 14/M03 A3032 RMK A01 T01351034  RH  031%=      5-min Rain = 0
KSB1 142012Z 09008KT 14/M03 A3032 RMK A01 T01351033  RH  031%=      5-min Rain = 0
KSB1 142013Z 07007KT 14/M04 A3032 RMK A01 T01361035  RH  030%=      5-min Rain = 0
KSB1 142014Z 07007KT 14/M04 A3032 RMK A01 T01351036  RH  030%=      5-min Rain = 0
KSB1 142015Z 08008KT 14/M03 A3032 RMK A01 T01351034  RH  031%=      5-min Rain = 0
KSB1 142016Z 07008KT 14/M03 A3032 RMK A01 T01371033  RH  031%=      5-min Rain = 0
KSB1 142017Z 08005KT 14/M03 A3032 RMK A01 T01391032  RH  030%=      5-min Rain = 0
KSB1 142018Z 08005KT 14/M03 A3032 RMK A01 T01391033  RH  030%=      5-min Rain = 0
KSB1 142019Z 06005KT 14/M03 A3032 RMK A01 T01381033  RH  030%=      5-min Rain = 0
KSB1 142020Z 06007KT 14/M03 A3032 RMK A01 T01361033  RH  031%=      5-min Rain = 0
KSB1 142021Z 05007KT 14/M03 A3032 RMK A01 T01391031  RH  031%=      5-min Rain = 0
KSB1 142022Z 05007KT 14/M03 A3032 RMK A01 T01421031  RH  030%=      5-min Rain = 0
KSB1 142023Z 05006KT 14/M03 A3032 RMK A01 T01421032  RH  030%=      5-min Rain = 0
KSB1 142024Z 05005KT 14/M03 A3032 RMK A01 T01411033  RH  030%=      5-min Rain = 0
KSB1 142025Z 07008KT 14/M03 A3032 RMK A01 T01391034  RH  030%=      5-min Rain = 0
KSB1 142026Z 05008KT 14/M03 A3032 RMK A01 T01381033  RH  030%=      5-min Rain = 0
KSB1 142027Z 05004KT 14/M03 A3032 RMK A01 T01351034  RH  031%=      5-min Rain = 0
KSB1 142028Z 06006KT 13/M03 A3032 RMK A01 T01341034  RH  031%=      5-min Rain = 0
KSB1 142029Z 08011G16KT 13/M03 A3031 RMK A01 T01341031  RH  032%=      5-min Rain = 0
KSB1 142030Z 11009KT 14/M03 A3032 RMK A01 T01381028  RH  032%=      5-min Rain = 0
KSB1 142031Z 12008KT 14/M03 A3032 RMK A01 T01391028  RH  031%=      5-min Rain = 0
KSB1 142032Z 10011KT 14/M03 A3032 RMK A01 T01401027  RH  031%=      5-min Rain = 0
KSB1 142033Z 10013KT 14/M03 A3032 RMK A01 T01401029  RH  031%=      5-min Rain = 0
KSB1 142034Z 09013KT 14/M03 A3032 RMK A01 T01401028  RH  031%=      5-min Rain = 0
KSB1 142035Z 10009KT 14/M03 A3032 RMK A01 T01411027  RH  031%=      5-min Rain = 0
KSB1 142036Z 12009KT 14/M03 A3032 RMK A01 T01411027  RH  031%=      5-min Rain = 0
KSB1 142037Z 10008KT 14/M03 A3032 RMK A01 T01391030  RH  031%=      5-min Rain = 0
KSB1 142038Z 11009KT 14/M03 A3031 RMK A01 T01371028  RH  032%=      5-min Rain = 0
KSB1 142039Z 11010KT 14/M03 A3031 RMK A01 T01391027  RH  031%=      5-min Rain = 0
KSB1 142040Z 11010KT 14/M03 A3032 RMK A01 T01391027  RH  032%=      5-min Rain = 0
KSB1 142041Z 12012KT 14/M03 A3031 RMK A01 T01391029  RH  031%=      5-min Rain = 0
KSB1 142042Z 11009G15KT 14/M03 A3032 RMK A01 T01391029  RH  031%=      5-min Rain = 0
KSB1 142043Z 11011KT 14/M03 A3032 RMK A01 T01371030  RH  031%=      5-min Rain = 0
KSB1 142044Z 11009KT 14/M03 A3032 RMK A01 T01371030  RH  031%=      5-min Rain = 0
KSB1 142045Z 12007KT 14/M03 A3032 RMK A01 T01361030  RH  032%=      5-min Rain = 0
KSB1 142046Z 13008KT 13/M03 A3032 RMK A01 T01331031  RH  032%=      5-min Rain = 0
KSB1 142047Z 12009KT 13/M03 A3032 RMK A01 T01331030  RH  032%=      5-min Rain = 0
KSB1 142048Z 12009KT 14/M03 A3032 RMK A01 T01351030  RH  032%=      5-min Rain = 0
KSB1 142049Z 11009KT 13/M03 A3032 RMK A01 T01341031  RH  032%=      5-min Rain = 0
KSB1 142050Z 13010KT 13/M03 A3032 RMK A01 T01331031  RH  032%=      5-min Rain = 0
KSB1 142051Z 14012KT 14/M03 A3032 RMK A01 T01351030  RH  032%=      5-min Rain = 0
KSB1 142052Z 14010KT 14/M03 A3032 RMK A01 T01371030  RH  031%=      5-min Rain = 0
KSB1 142053Z 14009KT 14/M03 A3032 RMK A01 T01391030  RH  031%=      5-min Rain = 0
KSB1 142054Z 15010KT 14/M03 A3032 RMK A01 T01371032  RH  031%=      5-min Rain = 0
KSB1 142055Z 13009KT 14/M03 A3032 RMK A01 T01381030  RH  031%=      5-min Rain = 0
KSB1 142056Z 13011KT 14/M03 A3032 RMK A01 T01401029  RH  031%=      5-min Rain = 0
KSB1 142057Z 14010G16KT 14/M03 A3032 RMK A01 T01411029  RH  031%=      5-min Rain = 0
KSB1 142058Z 13008KT 14/M03 A3032 RMK A01 T01391032  RH  031%=      5-min Rain = 0
KSB1 142059Z 14012KT 14/M03 A3032 RMK A01 T01391030  RH  031%=      5-min Rain = 0
KSB1 142100Z 13012KT 14/M03 A3032 RMK A01 T01401030  RH  031%=      5-min Rain = 0
KSB1 142101Z 13011KT 14/M03 A3032 RMK A01 T01391032  RH  030%=      5-min Rain = 0
KSB1 142102Z 13013KT 14/M03 A3032 RMK A01 T01371032  RH  031%=      5-min Rain = 0
KSB1 142103Z 13010KT 14/M03 A3032 RMK A01 T01381032  RH  031%=      5-min Rain = 0
KSB1 142104Z 13010KT 14/M03 A3032 RMK A01 T01381031  RH  031%=      5-min Rain = 0
KSB1 142105Z 12011KT 14/M03 A3032 RMK A01 T01401030  RH  031%=      5-min Rain = 0
KSB1 142106Z 10012KT 14/M03 A3032 RMK A01 T01401031  RH  030%=      5-min Rain = 0
KSB1 142107Z 09010KT 14/M03 A3032 RMK A01 T01391031  RH  031%=      5-min Rain = 0
KSB1 142108Z 11010G15KT 14/M03 A3032 RMK A01 T01391031  RH  031%=      5-min Rain = 0
KSB1 142109Z 12009KT 14/M03 A3032 RMK A01 T01391031  RH  031%=      5-min Rain = 0
KSB1 142110Z 12006KT 14/M03 A3032 RMK A01 T01371032  RH  031%=      5-min Rain = 0
KSB1 142111Z 11006KT 14/M03 A3032 RMK A01 T01371031  RH  031%=      5-min Rain = 0
KSB1 142112Z 11009KT 14/M03 A3032 RMK A01 T01381030  RH  031%=      5-min Rain = 0
KSB1 142113Z 10012KT 14/M03 A3032 RMK A01 T01401029  RH  031%=      5-min Rain = 0
KSB1 142114Z 12010KT 14/M03 A3032 RMK A01 T01391032  RH  030%=      5-min Rain = 0
KSB1 142115Z 13013KT 14/M03 A3032 RMK A01 T01381031  RH  031%=      5-min Rain = 0
KSB1 142116Z 12011KT 14/M03 A3032 RMK A01 T01371033  RH  031%=      5-min Rain = 0
KSB1 142117Z 11013KT 14/M03 A3032 RMK A01 T01361032  RH  031%=      5-min Rain = 0
KSB1 142118Z 13011KT 14/M03 A3032 RMK A01 T01391031  RH  031%=      5-min Rain = 0
KSB1 142119Z 12010KT 14/M03 A3032 RMK A01 T01381033  RH  030%=      5-min Rain = 0
KSB1 142120Z 14010KT 14/M03 A3032 RMK A01 T01371033  RH  031%=      5-min Rain = 0
KSB1 142121Z 14009KT 14/M03 A3032 RMK A01 T01361034  RH  031%=      5-min Rain = 0
KSB1 142122Z 13010KT 14/M03 A3032 RMK A01 T01371032  RH  031%=      5-min Rain = 0
KSB1 142123Z 13011KT 14/M03 A3032 RMK A01 T01381033  RH  030%=      5-min Rain = 0
KSB1 142124Z 13012KT 14/M03 A3032 RMK A01 T01371034  RH  030%=      5-min Rain = 0
KSB1 142125Z 12013KT 14/M03 A3032 RMK A01 T01381034  RH  030%=      5-min Rain = 0
KSB1 142126Z 13009KT 14/M03 A3032 RMK A01 T01371034  RH  030%=      5-min Rain = 0
KSB1 142127Z 13010KT 14/M03 A3032 RMK A01 T01371033  RH  031%=      5-min Rain = 0
KSB1 142128Z 11008KT 14/M03 A3032 RMK A01 T01371033  RH  031%=      5-min Rain = 0
KSB1 142129Z 12009KT 14/M03 A3032 RMK A01 T01371033  RH  031%=      5-min Rain = 0
KSB1 142130Z 12012KT 14/M03 A3032 RMK A01 T01371033  RH  031%=      5-min Rain = 0
KSB1 142131Z 13013KT 14/M03 A3032 RMK A01 T01371033  RH  031%=      5-min Rain = 0
KSB1 142132Z 13012KT 14/M04 A3032 RMK A01 T01361035  RH  030%=      5-min Rain = 0
KSB1 142133Z 13009KT 13/M04 A3032 RMK A01 T01341035  RH  031%=      5-min Rain = 0
KSB1 142134Z 13009KT 14/M03 A3032 RMK A01 T01351033  RH  031%=      5-min Rain = 0
KSB1 142135Z 12011KT 14/M03 A3032 RMK A01 T01371032  RH  031%=      5-min Rain = 0
KSB1 142136Z 12010KT 14/M03 A3032 RMK A01 T01381033  RH  030%=      5-min Rain = 0
KSB1 142137Z 13010KT 14/M03 A3032 RMK A01 T01381033  RH  030%=      5-min Rain = 0
KSB1 142138Z 13013KT 14/M03 A3032 RMK A01 T01391034  RH  030%=      5-min Rain = 0
KSB1 142139Z 13010KT 14/M03 A3032 RMK A01 T01381034  RH  030%=      5-min Rain = 0
KSB1 142140Z 11013KT 14/M03 A3032 RMK A01 T01411031  RH  030%=      5-min Rain = 0
KSB1 142141Z 12012KT 14/M03 A3032 RMK A01 T01411033  RH  030%=      5-min Rain = 0
KSB1 142142Z 13014KT 14/M03 A3032 RMK A01 T01391034  RH  030%=      5-min Rain = 0
KSB1 142143Z 13013KT 14/M04 A3032 RMK A01 T01381035  RH  030%=      5-min Rain = 0
KSB1 142144Z 13012KT 14/M04 A3032 RMK A01 T01361035  RH  030%=      5-min Rain = 0
KSB1 142145Z 13009KT 14/M04 A3032 RMK A01 T01351036  RH  030%=      5-min Rain = 0
KSB1 142146Z 13010KT 14/M04 A3032 RMK A01 T01351035  RH  031%=      5-min Rain = 0
KSB1 142147Z 13010KT 14/M03 A3032 RMK A01 T01371034  RH  030%=      5-min Rain = 0
KSB1 142148Z 12009KT 14/M03 A3032 RMK A01 T01381034  RH  030%=      5-min Rain = 0
KSB1 142149Z 12009KT 14/M03 A3032 RMK A01 T01401033  RH  030%=      5-min Rain = 0
KSB1 142150Z 12011KT 14/M03 A3032 RMK A01 T01391034  RH  030%=      5-min Rain = 0
KSB1 142151Z 11013KT 14/M04 A3032 RMK A01 T01371036  RH  030%=      5-min Rain = 0
KSB1 142152Z 12012KT 14/M04 A3032 RMK A01 T01361036  RH  030%=      5-min Rain = 0
KSB1 142153Z 13011KT 14/M04 A3032 RMK A01 T01361036  RH  030%=      5-min Rain = 0
KSB1 142154Z 14010KT 14/M04 A3032 RMK A01 T01351036  RH  030%=      5-min Rain = 0
KSB1 142155Z 14013KT 14/M04 A3032 RMK A01 T01351036  RH  030%=      5-min Rain = 0
KSB1 142156Z 13011KT 14/M04 A3032 RMK A01 T01351036  RH  030%=      5-min Rain = 0
KSB1 142157Z 13013KT 14/M04 A3032 RMK A01 T01351035  RH  030%=      5-min Rain = 0
KSB1 142158Z 14012KT 14/M04 A3032 RMK A01 T01351036  RH  030%=      5-min Rain = 0
KSB1 142159Z 12014KT 13/M04 A3032 RMK A01 T01341036  RH  031%=      5-min Rain = 0
KSB1 142200Z 10012KT 13/M04 A3032 RMK A01 T01331036  RH  031%=      5-min Rain = 0
KSB1 142201Z 12010KT 13/M04 A3032 RMK A01 T01331035  RH  031%=      5-min Rain = 0
KSB1 142202Z 13012KT 13/M04 A3032 RMK A01 T01341035  RH  031%=      5-min Rain = 0
KSB1 142203Z 13013KT 13/M04 A3032 RMK A01 T01341036  RH  031%=      5-min Rain = 0
KSB1 142204Z 13011KT 13/M04 A3032 RMK A01 T01331036  RH  031%=      5-min Rain = 0
KSB1 142205Z 12011KT 13/M04 A3032 RMK A01 T01341035  RH  031%=      5-min Rain = 0
KSB1 142206Z 10011KT 14/M04 A3032 RMK A01 T01351036  RH  030%=      5-min Rain = 0
KSB1 142207Z 10013KT 13/M04 A3032 RMK A01 T01331037  RH  030%=      5-min Rain = 0
KSB1 142208Z 11011KT 13/M04 A3032 RMK A01 T01331037  RH  030%=      5-min Rain = 0
KSB1 142209Z 12011KT 13/M04 A3032 RMK A01 T01311038  RH  031%=      5-min Rain = 0
KSB1 142210Z 12011KT 13/M04 A3032 RMK A01 T01301038  RH  031%=      5-min Rain = 0
KSB1 142211Z 12010KT 13/M04 A3032 RMK A01 T01301038  RH  031%=      5-min Rain = 0
KSB1 142212Z 13011KT 13/M04 A3032 RMK A01 T01301039  RH  031%=      5-min Rain = 0
KSB1 142213Z 13012KT 13/M04 A3032 RMK A01 T01301039  RH  031%=      5-min Rain = 0
KSB1 142214Z 12014KT 13/M04 A3032 RMK A01 T01301038  RH  031%=      5-min Rain = 0
KSB1 142215Z 10012KT 13/M04 A3032 RMK A01 T01301038  RH  031%=      5-min Rain = 0
KSB1 142216Z 10011KT 13/M04 A3032 RMK A01 T01301038  RH  031%=      5-min Rain = 0
KSB1 142217Z 10008KT 13/M04 A3032 RMK A01 T01291038  RH  031%=      5-min Rain = 0
KSB1 142218Z 12010KT 13/M04 A3032 RMK A01 T01291037  RH  031%=      5-min Rain = 0
KSB1 142219Z 13011KT 13/M04 A3032 RMK A01 T01301037  RH  031%=      5-min Rain = 0
KSB1 142220Z 13010KT 13/M04 A3032 RMK A01 T01321036  RH  031%=      5-min Rain = 0
KSB1 142221Z 11011KT 13/M04 A3032 RMK A01 T01331036  RH  031%=      5-min Rain = 0
KSB1 142222Z 11011KT 13/M04 A3032 RMK A01 T01331036  RH  031%=      5-min Rain = 0
KSB1 142223Z 12010KT 13/M04 A3033 RMK A01 T01311038  RH  031%=      5-min Rain = 0
KSB1 142224Z 12008KT 13/M04 A3033 RMK A01 T01291038  RH  031%=      5-min Rain = 0
KSB1 142225Z 13008KT 13/M04 A3033 RMK A01 T01291038  RH  031%=      5-min Rain = 0
KSB1 142226Z 13010KT 13/M04 A3033 RMK A01 T01291038  RH  031%=      5-min Rain = 0
KSB1 142227Z 13008KT 13/M04 A3033 RMK A01 T01291038  RH  031%=      5-min Rain = 0
KSB1 142228Z 11009KT 13/M04 A3033 RMK A01 T01291037  RH  031%=      5-min Rain = 0
KSB1 142229Z 11010KT 13/M04 A3033 RMK A01 T01311036  RH  031%=      5-min Rain = 0
KSB1 142230Z 11011KT 13/M04 A3033 RMK A01 T01311037  RH  031%=      5-min Rain = 0
KSB1 142231Z 11009KT 13/M04 A3033 RMK A01 T01291039  RH  031%=      5-min Rain = 0
KSB1 142232Z 11008KT 13/M04 A3033 RMK A01 T01281038  RH  031%=      5-min Rain = 0
KSB1 142233Z 12008KT 13/M04 A3033 RMK A01 T01281037  RH  032%=      5-min Rain = 0
KSB1 142234Z 12010KT 13/M04 A3033 RMK A01 T01291036  RH  031%=      5-min Rain = 0
KSB1 142235Z 11011KT 13/M04 A3033 RMK A01 T01291036  RH  031%=      5-min Rain = 0
KSB1 142236Z 10010KT 13/M04 A3033 RMK A01 T01291036  RH  031%=      5-min Rain = 0
KSB1 142237Z 10011KT 13/M04 A3033 RMK A01 T01291036  RH  031%=      5-min Rain = 0
KSB1 142238Z 12010KT 13/M04 A3033 RMK A01 T01281037  RH  032%=      5-min Rain = 0
KSB1 142239Z 13010KT 13/M04 A3033 RMK A01 T01271037  RH  032%=      5-min Rain = 0
KSB1 142240Z 12009KT 13/M04 A3033 RMK A01 T01281036  RH  032%=      5-min Rain = 0
KSB1 142241Z 13009KT 13/M04 A3033 RMK A01 T01291036  RH  032%=      5-min Rain = 0
KSB1 142242Z 13010KT 13/M04 A3033 RMK A01 T01301035  RH  032%=      5-min Rain = 0
KSB1 142243Z 13011KT 13/M04 A3033 RMK A01 T01301035  RH  031%=      5-min Rain = 0
KSB1 142244Z 11012KT 13/M04 A3033 RMK A01 T01301036  RH  031%=      5-min Rain = 0
KSB1 142245Z 11012KT 13/M04 A3033 RMK A01 T01291037  RH  031%=      5-min Rain = 0
KSB1 142246Z 11011KT 13/M04 A3033 RMK A01 T01271038  RH  032%=      5-min Rain = 0
KSB1 142247Z 12010KT 13/M04 A3033 RMK A01 T01261037  RH  032%=      5-min Rain = 0
KSB1 142248Z 11012KT 13/M04 A3033 RMK A01 T01261036  RH  032%=      5-min Rain = 0
KSB1 142249Z 11010KT 13/M04 A3033 RMK A01 T01261036  RH  032%=      5-min Rain = 0
KSB1 142250Z 11011KT 13/M04 A3033 RMK A01 T01251036  RH  032%=      5-min Rain = 0
KSB1 142251Z 12009KT 13/M04 A3033 RMK A01 T01251036  RH  032%=      5-min Rain = 0
KSB1 142252Z 12012KT 13/M04 A3033 RMK A01 T01261036  RH  032%=      5-min Rain = 0
KSB1 142253Z 12011KT 13/M04 A3033 RMK A01 T01261036  RH  032%=      5-min Rain = 0
KSB1 142254Z 12011KT 13/M04 A3033 RMK A01 T01261036  RH  032%=      5-min Rain = 0
KSB1 142255Z 13012KT 13/M04 A3033 RMK A01 T01261036  RH  032%=      5-min Rain = 0
KSB1 142256Z 13012KT 13/M04 A3033 RMK A01 T01261037  RH  032%=      5-min Rain = 0
KSB1 142257Z 12010KT 13/M04 A3033 RMK A01 T01251037  RH  032%=      5-min Rain = 0
KSB1 142258Z 12010KT 12/M04 A3033 RMK A01 T01241037  RH  032%=      5-min Rain = 0
KSB1 142259Z 13011KT 13/M04 A3033 RMK A01 T01261036  RH  032%=      5-min Rain = 0
KSB1 142300Z 12012KT 13/M04 A3033 RMK A01 T01251037  RH  032%=      5-min Rain = 0
KSB1 142301Z 13012KT 13/M04 A3033 RMK A01 T01251037  RH  032%=      5-min Rain = 0
KSB1 142302Z 13012KT 13/M04 A3033 RMK A01 T01251037  RH  032%=      5-min Rain = 0
KSB1 142303Z 11011KT 13/M04 A3033 RMK A01 T01251036  RH  032%=      5-min Rain = 0
KSB1 142304Z 11009KT 12/M04 A3033 RMK A01 T01241036  RH  032%=      5-min Rain = 0
KSB1 142305Z 12009KT 12/M04 A3033 RMK A01 T01241036  RH  033%=      5-min Rain = 0
KSB1 142306Z 13012KT 12/M04 A3033 RMK A01 T01241036  RH  033%=      5-min Rain = 0
KSB1 142307Z 12010KT 12/M04 A3033 RMK A01 T01241037  RH  032%=      5-min Rain = 0
KSB1 142308Z 12011KT 12/M04 A3034 RMK A01 T01231036  RH  033%=      5-min Rain = 0
KSB1 142309Z 12010KT 12/M04 A3034 RMK A01 T01231036  RH  033%=      5-min Rain = 0
KSB1 142310Z 13010KT 12/M04 A3034 RMK A01 T01231036  RH  033%=      5-min Rain = 0
KSB1 142311Z 12010KT 12/M04 A3034 RMK A01 T01221037  RH  033%=      5-min Rain = 0
KSB1 142312Z 12010KT 12/M04 A3034 RMK A01 T01221037  RH  033%=      5-min Rain = 0
KSB1 142313Z 12010KT 12/M04 A3034 RMK A01 T01211037  RH  033%=      5-min Rain = 0
KSB1 142314Z 11010KT 12/M04 A3034 RMK A01 T01211037  RH  033%=      5-min Rain = 0
KSB1 142315Z 11011KT 12/M04 A3034 RMK A01 T01201038  RH  033%=      5-min Rain = 0
KSB1 142316Z 11011KT 12/M04 A3034 RMK A01 T01191037  RH  033%=      5-min Rain = 0
KSB1 142317Z 12012KT 12/M04 A3034 RMK A01 T01201036  RH  034%=      5-min Rain = 0
KSB1 142318Z 12010KT 12/M04 A3034 RMK A01 T01191036  RH  034%=      5-min Rain = 0
KSB1 142319Z 11009KT 12/M04 A3034 RMK A01 T01191035  RH  034%=      5-min Rain = 0
KSB1 142320Z 11013KT 12/M04 A3034 RMK A01 T01191035  RH  034%=      5-min Rain = 0
KSB1 142321Z 11012KT 12/M04 A3034 RMK A01 T01191036  RH  034%=      5-min Rain = 0
KSB1 142322Z 11011KT 12/M04 A3034 RMK A01 T01181036  RH  034%=      5-min Rain = 0
KSB1 142323Z 12011KT 12/M04 A3034 RMK A01 T01171036  RH  034%=      5-min Rain = 0
KSB1 142324Z 11011KT 12/M04 A3034 RMK A01 T01171036  RH  034%=      5-min Rain = 0
KSB1 142325Z 11010KT 12/M04 A3034 RMK A01 T01171036  RH  034%=      5-min Rain = 0
KSB1 142326Z 11011KT 12/M04 A3034 RMK A01 T01171037  RH  034%=      5-min Rain = 0
KSB1 142327Z 11013KT 12/M04 A3034 RMK A01 T01161038  RH  034%=      5-min Rain = 0
KSB1 142328Z 11011KT 12/M04 A3034 RMK A01 T01151040  RH  034%=      5-min Rain = 0
KSB1 142329Z 12012KT 12/M04 A3034 RMK A01 T01151040  RH  034%=      5-min Rain = 0
KSB1 142330Z 12012KT 11/M04 A3035 RMK A01 T01141039  RH  034%=      5-min Rain = 0
KSB1 142331Z 12011KT 11/M04 A3035 RMK A01 T01141038  RH  034%=      5-min Rain = 0
KSB1 142332Z 12010KT 11/M04 A3035 RMK A01 T01141037  RH  035%=      5-min Rain = 0
KSB1 142333Z 11009KT 11/M04 A3035 RMK A01 T01131036  RH  035%=      5-min Rain = 0
KSB1 142334Z 12009KT 11/M04 A3035 RMK A01 T01131036  RH  035%=      5-min Rain = 0
KSB1 142335Z 12010KT 11/M04 A3035 RMK A01 T01131036  RH  035%=      5-min Rain = 0
KSB1 142336Z 12010KT 11/M04 A3035 RMK A01 T01121036  RH  035%=      5-min Rain = 0
KSB1 142337Z 12009KT 11/M04 A3035 RMK A01 T01121036  RH  035%=      5-min Rain = 0
KSB1 142338Z 11010KT 11/M04 A3035 RMK A01 T01111036  RH  035%=      5-min Rain = 0
KSB1 142339Z 11012KT 11/M04 A3035 RMK A01 T01111036  RH  035%=      5-min Rain = 0
KSB1 142340Z 12011KT 11/M04 A3035 RMK A01 T01111036  RH  035%=      5-min Rain = 0
KSB1 142341Z 12011KT 11/M04 A3035 RMK A01 T01101036  RH  036%=      5-min Rain = 0
KSB1 142342Z 11011KT 11/M04 A3035 RMK A01 T01101036  RH  036%=      5-min Rain = 0
KSB1 142343Z 12012KT 11/M04 A3035 RMK A01 T01101036  RH  036%=      5-min Rain = 0
KSB1 142344Z 11011KT 11/M04 A3035 RMK A01 T01091036  RH  036%=      5-min Rain = 0
KSB1 142345Z 11010KT 11/M04 A3035 RMK A01 T01081036  RH  036%=      5-min Rain = 0
KSB1 142346Z 11010KT 11/M04 A3035 RMK A01 T01081036  RH  036%=      5-min Rain = 0
KSB1 142347Z 11010KT 11/M04 A3035 RMK A01 T01071036  RH  037%=      5-min Rain = 0
KSB1 142348Z 11009KT 11/M04 A3035 RMK A01 T01071035  RH  037%=      5-min Rain = 0
KSB1 142349Z 11010KT 11/M04 A3035 RMK A01 T01061036  RH  037%=      5-min Rain = 0
KSB1 142350Z 12010KT 11/M04 A3035 RMK A01 T01061035  RH  037%=      5-min Rain = 0
KSB1 142351Z 12009KT 11/M04 A3035 RMK A01 T01061035  RH  037%=      5-min Rain = 0
KSB1 142352Z 12008KT 11/M04 A3035 RMK A01 T01051035  RH  037%=      5-min Rain = 0
KSB1 142353Z 12008KT 10/M04 A3035 RMK A01 T01041035  RH  037%=      5-min Rain = 0
KSB1 142354Z 12011KT 10/M04 A3035 RMK A01 T01041035  RH  037%=      5-min Rain = 0
KSB1 142355Z 12010KT 10/M04 A3035 RMK A01 T01031036  RH  038%=      5-min Rain = 0
KSB1 142356Z 12010KT 10/M04 A3035 RMK A01 T01021036  RH  038%=      5-min Rain = 0
KSB1 142357Z 12010KT 10/M04 A3035 RMK A01 T01011036  RH  038%=      5-min Rain = 0
KSB1 142358Z 12009KT 10/M04 A3035 RMK A01 T01011036  RH  038%=      5-min Rain = 0
KSB1 142359Z 11011KT 10/M04 A3035 RMK A01 T01001036  RH  038%=      5-min Rain = 0
KSB1 150000Z 11010KT 10/M04 A3035 RMK A01 T01001036  RH  038%=      5-min Rain = 0
KSB1 150001Z 11007KT 10/M04 A3035 RMK A01 T01001036  RH  038%=      5-min Rain = 0
KSB1 150002Z 12010KT 10/M04 A3035 RMK A01 T00991036  RH  038%=      5-min Rain = 0
KSB1 150003Z 12009KT 10/M04 A3035 RMK A01 T00991036  RH  038%=      5-min Rain = 0
KSB1 150004Z 11009KT 10/M04 A3035 RMK A01 T00991036  RH  039%=      5-min Rain = 0
KSB1 150005Z 11010KT 10/M04 A3035 RMK A01 T00981036  RH  039%=      5-min Rain = 0
KSB1 150006Z 11009KT 10/M04 A3035 RMK A01 T00981036  RH  039%=      5-min Rain = 0
KSB1 150007Z 12008KT 10/M04 A3035 RMK A01 T00981037  RH  039%=      5-min Rain = 0
KSB1 150008Z 12007KT 10/M04 A3035 RMK A01 T00971037  RH  039%=      5-min Rain = 0
KSB1 150009Z 11008KT 10/M04 A3036 RMK A01 T00961037  RH  039%=      5-min Rain = 0
KSB1 150010Z 11009KT 10/M04 A3036 RMK A01 T00961037  RH  039%=      5-min Rain = 0
KSB1 150011Z 11008KT 10/M04 A3036 RMK A01 T00951037  RH  039%=      5-min Rain = 0
KSB1 150012Z 11008KT 10/M04 A3036 RMK A01 T00951037  RH  039%=      5-min Rain = 0
KSB1 150013Z 12008KT 10/M04 A3036 RMK A01 T00951037  RH  039%=      5-min Rain = 0
KSB1 150014Z 11009KT 09/M04 A3036 RMK A01 T00941037  RH  039%=      5-min Rain = 0
KSB1 150015Z 11008KT 09/M04 A3036 RMK A01 T00941037  RH  040%=      5-min Rain = 0
KSB1 150016Z 11008KT 09/M04 A3036 RMK A01 T00931037  RH  040%=      5-min Rain = 0
KSB1 150017Z 11008KT 09/M04 A3036 RMK A01 T00931037  RH  040%=      5-min Rain = 0
KSB1 150018Z 11008KT 09/M04 A3036 RMK A01 T00921037  RH  040%=      5-min Rain = 0
KSB1 150019Z 11008KT 09/M04 A3036 RMK A01 T00921037  RH  040%=      5-min Rain = 0
KSB1 150020Z 11008KT 09/M04 A3036 RMK A01 T00911037  RH  040%=      5-min Rain = 0
KSB1 150021Z 11007KT 09/M04 A3036 RMK A01 T00901037  RH  040%=      5-min Rain = 0
KSB1 150022Z 10007KT 09/M04 A3036 RMK A01 T00901037  RH  041%=      5-min Rain = 0
KSB1 150023Z 10007KT 09/M04 A3036 RMK A01 T00891037  RH  041%=      5-min Rain = 0
KSB1 150024Z 10008KT 09/M04 A3036 RMK A01 T00891037  RH  041%=      5-min Rain = 0
KSB1 150025Z 11007KT 09/M04 A3036 RMK A01 T00891037  RH  041%=      5-min Rain = 0
KSB1 150026Z 11008KT 09/M04 A3036 RMK A01 T00891037  RH  041%=      5-min Rain = 0
KSB1 150027Z 11008KT 09/M04 A3036 RMK A01 T00881037  RH  041%=      5-min Rain = 0
KSB1 150028Z 11007KT 09/M04 A3036 RMK A01 T00881037  RH  041%=      5-min Rain = 0
KSB1 150029Z 10007KT 09/M04 A3036 RMK A01 T00881037  RH  041%=      5-min Rain = 0
KSB1 150030Z 10007KT 09/M04 A3036 RMK A01 T00871037  RH  041%=      5-min Rain = 0
KSB1 150031Z 10008KT 09/M04 A3036 RMK A01 T00871037  RH  041%=      5-min Rain = 0
KSB1 150032Z 10008KT 09/M04 A3036 RMK A01 T00861038  RH  041%=      5-min Rain = 0
KSB1 150033Z 10008KT 09/M04 A3036 RMK A01 T00861037  RH  042%=      5-min Rain = 0
KSB1 150034Z 10008KT 09/M04 A3036 RMK A01 T00851037  RH  042%=      5-min Rain = 0
KSB1 150035Z 10007KT 09/M04 A3036 RMK A01 T00851037  RH  042%=      5-min Rain = 0
KSB1 150036Z 10007KT 09/M04 A3036 RMK A01 T00851037  RH  042%=      5-min Rain = 0
KSB1 150037Z 10008KT 08/M04 A3036 RMK A01 T00841038  RH  042%=      5-min Rain = 0
KSB1 150038Z 10007KT 08/M04 A3036 RMK A01 T00831038  RH  042%=      5-min Rain = 0
KSB1 150039Z 10007KT 08/M04 A3037 RMK A01 T00831038  RH  042%=      5-min Rain = 0
KSB1 150040Z 10007KT 08/M04 A3037 RMK A01 T00821038  RH  042%=      5-min Rain = 0
KSB1 150041Z 10006KT 08/M04 A3037 RMK A01 T00821038  RH  043%=      5-min Rain = 0
KSB1 150042Z 09007KT 08/M04 A3037 RMK A01 T00811038  RH  043%=      5-min Rain = 0
KSB1 150043Z 10007KT 08/M04 A3037 RMK A01 T00811038  RH  043%=      5-min Rain = 0
KSB1 150044Z 10007KT 08/M04 A3037 RMK A01 T00811038  RH  043%=      5-min Rain = 0
KSB1 150045Z 10006KT 08/M04 A3037 RMK A01 T00811038  RH  043%=      5-min Rain = 0
KSB1 150046Z 10006KT 08/M04 A3037 RMK A01 T00801038  RH  043%=      5-min Rain = 0
KSB1 150047Z 10006KT 08/M04 A3037 RMK A01 T00791038  RH  043%=      5-min Rain = 0
KSB1 150048Z 10006KT 08/M04 A3037 RMK A01 T00791038  RH  043%=      5-min Rain = 0
KSB1 150049Z 10006KT 08/M04 A3037 RMK A01 T00791038  RH  043%=      5-min Rain = 0
KSB1 150050Z 10007KT 08/M04 A3037 RMK A01 T00781038  RH  043%=      5-min Rain = 0
KSB1 150051Z 10007KT 08/M04 A3037 RMK A01 T00781038  RH  043%=      5-min Rain = 0
KSB1 150052Z 10007KT 08/M04 A3037 RMK A01 T00781038  RH  043%=      5-min Rain = 0
KSB1 150053Z 11007KT 08/M04 A3037 RMK A01 T00781039  RH  043%=      5-min Rain = 0
KSB1 150054Z 11007KT 08/M04 A3037 RMK A01 T00781038  RH  043%=      5-min Rain = 0
KSB1 150055Z 11005KT 08/M04 A3037 RMK A01 T00781038  RH  044%=      5-min Rain = 0
KSB1 150056Z 12006KT 08/M04 A3037 RMK A01 T00771038  RH  044%=      5-min Rain = 0
KSB1 150057Z 12006KT 08/M04 A3037 RMK A01 T00761039  RH  044%=      5-min Rain = 0
KSB1 150058Z 12006KT 08/M04 A3037 RMK A01 T00751039  RH  044%=      5-min Rain = 0
KSB1 150059Z 12006KT 08/M04 A3037 RMK A01 T00751039  RH  045%=      5-min Rain = 0
KSB1 150100Z 11006KT 07/M04 A3037 RMK A01 T00741038  RH  045%=      5-min Rain = 0
KSB1 150101Z 11007KT 07/M04 A3037 RMK A01 T00741038  RH  045%=      5-min Rain = 0
KSB1 150102Z 11007KT 07/M04 A3037 RMK A01 T00741038  RH  045%=      5-min Rain = 0
KSB1 150103Z 11007KT 07/M04 A3037 RMK A01 T00741038  RH  045%=      5-min Rain = 0
KSB1 150104Z 11007KT 07/M04 A3037 RMK A01 T00741038  RH  045%=      5-min Rain = 0
KSB1 150105Z 11007KT 07/M04 A3037 RMK A01 T00741038  RH  045%=      5-min Rain = 0
KSB1 150106Z 11007KT 07/M04 A3037 RMK A01 T00741038  RH  045%=      5-min Rain = 0
KSB1 150107Z 11007KT 07/M04 A3038 RMK A01 T00731038  RH  045%=      5-min Rain = 0
KSB1 150108Z 11007KT 07/M04 A3038 RMK A01 T00731038  RH  045%=      5-min Rain = 0
KSB1 150109Z 11007KT 07/M04 A3038 RMK A01 T00721038  RH  045%=      5-min Rain = 0
KSB1 150110Z 11007KT 07/M04 A3038 RMK A01 T00721038  RH  045%=      5-min Rain = 0
KSB1 150111Z 11007KT 07/M04 A3038 RMK A01 T00711038  RH  046%=      5-min Rain = 0
KSB1 150112Z 11007KT 07/M04 A3038 RMK A01 T00711038  RH  046%=      5-min Rain = 0
KSB1 150113Z 11007KT 07/M04 A3038 RMK A01 T00711039  RH  046%=      5-min Rain = 0
KSB1 150114Z 11007KT 07/M04 A3038 RMK A01 T00711038  RH  046%=      5-min Rain = 0
KSB1 150115Z 10007KT 07/M04 A3038 RMK A01 T00711038  RH  046%=      5-min Rain = 0
KSB1 150116Z 11007KT 07/M04 A3038 RMK A01 T00711038  RH  046%=      5-min Rain = 0
KSB1 150117Z 10006KT 07/M04 A3038 RMK A01 T00711038  RH  046%=      5-min Rain = 0
KSB1 150118Z 11006KT 07/M04 A3038 RMK A01 T00711039  RH  046%=      5-min Rain = 0
KSB1 150119Z 11006KT 07/M04 A3038 RMK A01 T00711039  RH  045%=      5-min Rain = 0
KSB1 150120Z 11006KT 07/M04 A3038 RMK A01 T00711039  RH  046%=      5-min Rain = 0
KSB1 150121Z 11006KT 07/M04 A3038 RMK A01 T00711039  RH  046%=      5-min Rain = 0
KSB1 150122Z 11006KT 07/M04 A3038 RMK A01 T00711038  RH  046%=      5-min Rain = 0
KSB1 150123Z 11006KT 07/M04 A3039 RMK A01 T00711038  RH  046%=      5-min Rain = 0
KSB1 150124Z 11006KT 07/M04 A3039 RMK A01 T00701039  RH  046%=      5-min Rain = 0
KSB1 150125Z 11006KT 07/M04 A3039 RMK A01 T00701038  RH  046%=      5-min Rain = 0
KSB1 150126Z 12006KT 07/M04 A3039 RMK A01 T00701039  RH  046%=      5-min Rain = 0
KSB1 150127Z 12006KT 07/M04 A3039 RMK A01 T00691039  RH  046%=      5-min Rain = 0
KSB1 150128Z 11006KT 07/M04 A3039 RMK A01 T00691039  RH  046%=      5-min Rain = 0
KSB1 150129Z 11006KT 07/M04 A3039 RMK A01 T00691039  RH  046%=      5-min Rain = 0
KSB1 150130Z 11006KT 07/M04 A3039 RMK A01 T00691039  RH  046%=      5-min Rain = 0
KSB1 150131Z 11006KT 07/M04 A3039 RMK A01 T00691039  RH  046%=      5-min Rain = 0
KSB1 150132Z 11007KT 07/M04 A3039 RMK A01 T00681039  RH  046%=      5-min Rain = 0
KSB1 150133Z 11006KT 07/M04 A3039 RMK A01 T00681039  RH  047%=      5-min Rain = 0
KSB1 150134Z 11007KT 07/M04 A3039 RMK A01 T00671039  RH  047%=      5-min Rain = 0
KSB1 150135Z 11006KT 07/M04 A3039 RMK A01 T00671039  RH  047%=      5-min Rain = 0
KSB1 150136Z 11006KT 07/M04 A3039 RMK A01 T00671039  RH  047%=      5-min Rain = 0
KSB1 150137Z 11006KT 07/M04 A3039 RMK A01 T00661039  RH  047%=      5-min Rain = 0
KSB1 150138Z 12007KT 07/M04 A3039 RMK A01 T00661039  RH  047%=      5-min Rain = 0
KSB1 150139Z 12006KT 07/M04 A3039 RMK A01 T00661039  RH  047%=      5-min Rain = 0
KSB1 150140Z 12006KT 07/M04 A3039 RMK A01 T00671039  RH  047%=      5-min Rain = 0
KSB1 150141Z 12006KT 07/M04 A3039 RMK A01 T00671039  RH  047%=      5-min Rain = 0
KSB1 150142Z 12007KT 07/M04 A3039 RMK A01 T00671039  RH  047%=      5-min Rain = 0
KSB1 150143Z 11006KT 07/M04 A3039 RMK A01 T00661039  RH  047%=      5-min Rain = 0
KSB1 150144Z 12006KT 07/M04 A3039 RMK A01 T00661038  RH  047%=      5-min Rain = 0
KSB1 150145Z 12007KT 07/M04 A3039 RMK A01 T00661039  RH  047%=      5-min Rain = 0
KSB1 150146Z 12006KT 07/M04 A3039 RMK A01 T00651039  RH  047%=      5-min Rain = 0
KSB1 150147Z 11006KT 07/M04 A3039 RMK A01 T00651039  RH  047%=      5-min Rain = 0
KSB1 150148Z 11006KT 06/M04 A3039 RMK A01 T00641039  RH  048%=      5-min Rain = 0
KSB1 150149Z 11006KT 06/M04 A3039 RMK A01 T00631039  RH  048%=      5-min Rain = 0
KSB1 150150Z 11007KT 06/M04 A3039 RMK A01 T00631039  RH  048%=      5-min Rain = 0
KSB1 150151Z 11006KT 06/M04 A3039 RMK A01 T00621039  RH  048%=      5-min Rain = 0
KSB1 150152Z 11006KT 06/M04 A3039 RMK A01 T00621040  RH  048%=      5-min Rain = 0
KSB1 150153Z 11006KT 06/M04 A3039 RMK A01 T00611040  RH  048%=      5-min Rain = 0
KSB1 150154Z 11006KT 06/M04 A3039 RMK A01 T00601040  RH  049%=      5-min Rain = 0
KSB1 150155Z 11006KT 06/M04 A3039 RMK A01 T00601040  RH  049%=      5-min Rain = 0
KSB1 150156Z 11006KT 06/M04 A3039 RMK A01 T00591040  RH  049%=      5-min Rain = 0
KSB1 150157Z 11006KT 06/M04 A3039 RMK A01 T00591040  RH  049%=      5-min Rain = 0
KSB1 150158Z 11006KT 06/M04 A3039 RMK A01 T00591040  RH  049%=      5-min Rain = 0
KSB1 150159Z 11006KT 06/M04 A3039 RMK A01 T00591040  RH  049%=      5-min Rain = 0
KSB1 150200Z 11006KT 06/M04 A3039 RMK A01 T00581040  RH  049%=      5-min Rain = 0
KSB1 150201Z 11006KT 06/M04 A3039 RMK A01 T00581040  RH  049%=      5-min Rain = 0
KSB1 150202Z 11006KT 06/M04 A3039 RMK A01 T00591040  RH  049%=      5-min Rain = 0
KSB1 150203Z 11006KT 06/M04 A3039 RMK A01 T00581040  RH  049%=      5-min Rain = 0
KSB1 150204Z 11006KT 06/M04 A3039 RMK A01 T00591040  RH  049%=      5-min Rain = 0
KSB1 150205Z 11007KT 06/M04 A3039 RMK A01 T00591040  RH  049%=      5-min Rain = 0
KSB1 150206Z 11006KT 06/M04 A3039 RMK A01 T00591040  RH  049%=      5-min Rain = 0
KSB1 150207Z 11006KT 06/M04 A3039 RMK A01 T00591041  RH  049%=      5-min Rain = 0
KSB1 150208Z 11007KT 06/M04 A3039 RMK A01 T00591041  RH  049%=      5-min Rain = 0
KSB1 150209Z 11006KT 06/M04 A3039 RMK A01 T00591041  RH  049%=      5-min Rain = 0
KSB1 150210Z 11006KT 06/M04 A3039 RMK A01 T00581041  RH  049%=      5-min Rain = 0
KSB1 150211Z 11006KT 06/M04 A3039 RMK A01 T00571042  RH  049%=      5-min Rain = 0
KSB1 150212Z 11006KT 06/M04 A3039 RMK A01 T00561042  RH  049%=      5-min Rain = 0
KSB1 150213Z 11005KT 06/M04 A3039 RMK A01 T00551042  RH  049%=      5-min Rain = 0
KSB1 150214Z 11006KT 06/M04 A3039 RMK A01 T00551042  RH  050%=      5-min Rain = 0
KSB1 150215Z 11006KT 05/M04 A3039 RMK A01 T00541042  RH  050%=      5-min Rain = 0
KSB1 150216Z 11005KT 05/M04 A3039 RMK A01 T00541041  RH  050%=      5-min Rain = 0
KSB1 150217Z 11006KT 05/M04 A3039 RMK A01 T00541041  RH  050%=      5-min Rain = 0
KSB1 150218Z 11006KT 05/M04 A3039 RMK A01 T00541041  RH  050%=      5-min Rain = 0
KSB1 150219Z 10006KT 06/M04 A3039 RMK A01 T00551041  RH  050%=      5-min Rain = 0
KSB1 150220Z 10006KT 06/M04 A3039 RMK A01 T00551041  RH  050%=      5-min Rain = 0
KSB1 150221Z 10005KT 06/M04 A304 RMK A01 T00551041  RH  050%=      5-min Rain = 0
KSB1 150222Z 11005KT 06/M04 A304 RMK A01 T00551041  RH  050%=      5-min Rain = 0
KSB1 150223Z 11006KT 06/M04 A304 RMK A01 T00551041  RH  050%=      5-min Rain = 0
KSB1 150224Z 11005KT 06/M04 A304 RMK A01 T00551041  RH  050%=      5-min Rain = 0
KSB1 150225Z 10006KT 06/M04 A304 RMK A01 T00551041  RH  050%=      5-min Rain = 0
KSB1 150226Z 10005KT 06/M04 A304 RMK A01 T00551041  RH  050%=      5-min Rain = 0
KSB1 150227Z 10005KT 05/M04 A304 RMK A01 T00541042  RH  050%=      5-min Rain = 0
KSB1 150228Z 10005KT 05/M04 A304 RMK A01 T00541042  RH  050%=      5-min Rain = 0
KSB1 150229Z 10005KT 05/M04 A304 RMK A01 T00531042  RH  050%=      5-min Rain = 0
KSB1 150230Z 10005KT 05/M04 A304 RMK A01 T00521042  RH  050%=      5-min Rain = 0
KSB1 150231Z 11004KT 05/M04 A304 RMK A01 T00521042  RH  051%=      5-min Rain = 0
KSB1 150232Z 11004KT 05/M04 A304 RMK A01 T00521042  RH  051%=      5-min Rain = 0
KSB1 150233Z 11005KT 05/M04 A304 RMK A01 T00521042  RH  051%=      5-min Rain = 0
KSB1 150234Z 11005KT 05/M04 A304 RMK A01 T00521041  RH  051%=      5-min Rain = 0
KSB1 150235Z 12005KT 05/M04 A304 RMK A01 T00531041  RH  051%=      5-min Rain = 0
KSB1 150236Z 11006KT 05/M04 A304 RMK A01 T00531041  RH  051%=      5-min Rain = 0
KSB1 150237Z 11005KT 05/M04 A304 RMK A01 T00531041  RH  051%=      5-min Rain = 0
KSB1 150238Z 11006KT 05/M04 A304 RMK A01 T00531041  RH  051%=      5-min Rain = 0
KSB1 150239Z 11005KT 05/M04 A304 RMK A01 T00531041  RH  051%=      5-min Rain = 0
KSB1 150240Z 10005KT 05/M04 A304 RMK A01 T00531041  RH  051%=      5-min Rain = 0
KSB1 150241Z 10006KT 05/M04 A304 RMK A01 T00531041  RH  051%=      5-min Rain = 0
KSB1 150242Z 10005KT 05/M04 A304 RMK A01 T00531042  RH  050%=      5-min Rain = 0
KSB1 150243Z 10005KT 05/M04 A304 RMK A01 T00521042  RH  051%=      5-min Rain = 0
KSB1 150244Z 09004KT 05/M04 A304 RMK A01 T00511042  RH  051%=      5-min Rain = 0
KSB1 150245Z 09004KT 05/M04 A304 RMK A01 T00511042  RH  051%=      5-min Rain = 0
KSB1 150246Z 10004KT 05/M04 A304 RMK A01 T00521041  RH  051%=      5-min Rain = 0
KSB1 150247Z 10003KT 05/M04 A304 RMK A01 T00511042  RH  051%=      5-min Rain = 0
KSB1 150248Z 11003KT 05/M04 A3041 RMK A01 T00511042  RH  051%=      5-min Rain = 0
KSB1 150249Z 11002KT 05/M04 A3041 RMK A01 T00501042  RH  051%=      5-min Rain = 0
KSB1 150250Z 12003KT 05/M04 A3041 RMK A01 T00501042  RH  051%=      5-min Rain = 0
KSB1 150251Z 12004KT 05/M04 A3041 RMK A01 T00501042  RH  051%=      5-min Rain = 0
KSB1 150252Z 13005KT 05/M04 A3041 RMK A01 T00501042  RH  051%=      5-min Rain = 0
KSB1 150253Z 12005KT 05/M04 A3041 RMK A01 T00501042  RH  051%=      5-min Rain = 0
KSB1 150254Z 13006KT 05/M04 A3041 RMK A01 T00501041  RH  052%=      5-min Rain = 0
KSB1 150255Z 13006KT 05/M04 A3041 RMK A01 T00501042  RH  052%=      5-min Rain = 0
KSB1 150256Z 13006KT 05/M04 A3041 RMK A01 T00501041  RH  052%=      5-min Rain = 0
KSB1 150257Z 13005KT 05/M04 A3041 RMK A01 T00501041  RH  052%=      5-min Rain = 0
KSB1 150258Z 13006KT 05/M04 A3041 RMK A01 T00501041  RH  052%=      5-min Rain = 0
KSB1 150259Z 13006KT 05/M04 A3041 RMK A01 T00501041  RH  052%=      5-min Rain = 0
KSB1 150300Z 13005KT 05/M04 A3041 RMK A01 T00501041  RH  052%=      5-min Rain = 0
KSB1 150301Z 13006KT 05/M04 A3041 RMK A01 T00511040  RH  052%=      5-min Rain = 0
KSB1 150302Z 13005KT 05/M04 A3041 RMK A01 T00521040  RH  051%=      5-min Rain = 0
KSB1 150303Z 13007KT 05/M04 A3041 RMK A01 T00521040  RH  051%=      5-min Rain = 0
KSB1 150304Z 13007KT 05/M04 A3041 RMK A01 T00531040  RH  051%=      5-min Rain = 0
KSB1 150305Z 13007KT 05/M04 A3041 RMK A01 T00531040  RH  051%=      5-min Rain = 0
KSB1 150306Z 13007KT 05/M04 A3041 RMK A01 T00541039  RH  051%=      5-min Rain = 0
KSB1 150307Z 13008KT 05/M04 A3041 RMK A01 T00541040  RH  051%=      5-min Rain = 0
KSB1 150308Z 13009KT 05/M04 A3041 RMK A01 T00541040  RH  051%=      5-min Rain = 0
KSB1 150309Z 13008KT 06/M04 A3041 RMK A01 T00551039  RH  051%=      5-min Rain = 0
KSB1 150310Z 13008KT 06/M04 A3042 RMK A01 T00551039  RH  051%=      5-min Rain = 0
KSB1 150311Z 13007KT 06/M04 A3042 RMK A01 T00551039  RH  051%=      5-min Rain = 0
KSB1 150312Z 13008KT 06/M04 A3042 RMK A01 T00551039  RH  051%=      5-min Rain = 0
KSB1 150313Z 13008KT 06/M04 A3042 RMK A01 T00561039  RH  051%=      5-min Rain = 0
KSB1 150314Z 12007KT 06/M04 A3042 RMK A01 T00561039  RH  050%=      5-min Rain = 0
KSB1 150315Z 13007KT 06/M04 A3042 RMK A01 T00551039  RH  051%=      5-min Rain = 0
KSB1 150316Z 13007KT 06/M04 A3042 RMK A01 T00551039  RH  051%=      5-min Rain = 0
KSB1 150317Z 13008KT 06/M04 A3042 RMK A01 T00551039  RH  051%=      5-min Rain = 0
KSB1 150318Z 13007KT 06/M04 A3042 RMK A01 T00551039  RH  051%=      5-min Rain = 0
KSB1 150319Z 12007KT 06/M04 A3042 RMK A01 T00551039  RH  051%=      5-min Rain = 0
KSB1 150320Z 12007KT 05/M04 A3042 RMK A01 T00541039  RH  051%=      5-min Rain = 0
KSB1 150321Z 12007KT 05/M04 A3042 RMK A01 T00541039  RH  051%=      5-min Rain = 0
KSB1 150322Z 12007KT 05/M04 A3042 RMK A01 T00541039  RH  051%=      5-min Rain = 0
KSB1 150323Z 13007KT 05/M04 A3042 RMK A01 T00541039  RH  051%=      5-min Rain = 0
KSB1 150324Z 13006KT 05/M04 A3042 RMK A01 T00541039  RH  051%=      5-min Rain = 0
KSB1 150325Z 13007KT 05/M04 A3042 RMK A01 T00541039  RH  051%=      5-min Rain = 0
KSB1 150326Z 13006KT 05/M04 A3042 RMK A01 T00541039  RH  051%=      5-min Rain = 0
KSB1 150327Z 13007KT 05/M04 A3042 RMK A01 T00531039  RH  051%=      5-min Rain = 0
KSB1 150328Z 13007KT 05/M04 A3042 RMK A01 T00531039  RH  051%=      5-min Rain = 0
KSB1 150329Z 13006KT 05/M04 A3042 RMK A01 T00531039  RH  052%=      5-min Rain = 0
KSB1 150330Z 13006KT 05/M04 A3042 RMK A01 T00531039  RH  052%=      5-min Rain = 0
KSB1 150331Z 13007KT 05/M04 A3042 RMK A01 T00531039  RH  052%=      5-min Rain = 0
KSB1 150332Z 13006KT 05/M04 A3042 RMK A01 T00531039  RH  052%=      5-min Rain = 0
KSB1 150333Z 13006KT 05/M04 A3042 RMK A01 T00531038  RH  052%=      5-min Rain = 0
KSB1 150334Z 13006KT 05/M04 A3042 RMK A01 T00531039  RH  052%=      5-min Rain = 0
KSB1 150335Z 13006KT 05/M04 A3042 RMK A01 T00531039  RH  051%=      5-min Rain = 0
KSB1 150336Z 13006KT 05/M04 A3042 RMK A01 T00531039  RH  052%=      5-min Rain = 0
KSB1 150337Z 13006KT 05/M04 A3043 RMK A01 T00531039  RH  052%=      5-min Rain = 0
KSB1 150338Z 13006KT 05/M04 A3043 RMK A01 T00531039  RH  052%=      5-min Rain = 0
KSB1 150339Z 13006KT 05/M04 A3043 RMK A01 T00531039  RH  052%=      5-min Rain = 0
KSB1 150340Z 14006KT 05/M04 A3043 RMK A01 T00531039  RH  052%=      5-min Rain = 0
KSB1 150341Z 13006KT 05/M04 A3043 RMK A01 T00531039  RH  052%=      5-min Rain = 0
KSB1 150342Z 13006KT 05/M04 A3043 RMK A01 T00531039  RH  052%=      5-min Rain = 0
KSB1 150343Z 13006KT 05/M04 A3043 RMK A01 T00521039  RH  052%=      5-min Rain = 0
KSB1 150344Z 13006KT 05/M04 A3043 RMK A01 T00521039  RH  052%=      5-min Rain = 0
KSB1 150345Z 13006KT 05/M04 A3043 RMK A01 T00511039  RH  052%=      5-min Rain = 0
KSB1 150346Z 13006KT 05/M04 A3043 RMK A01 T00511039  RH  052%=      5-min Rain = 0
KSB1 150347Z 13005KT 05/M04 A3043 RMK A01 T00511039  RH  052%=      5-min Rain = 0
KSB1 150348Z 13005KT 05/M04 A3043 RMK A01 T00511039  RH  052%=      5-min Rain = 0
KSB1 150349Z 12005KT 05/M04 A3043 RMK A01 T00501039  RH  052%=      5-min Rain = 0
KSB1 150350Z 12005KT 05/M04 A3043 RMK A01 T00501039  RH  052%=      5-min Rain = 0
KSB1 150351Z 12005KT 05/M04 A3043 RMK A01 T00501039  RH  053%=      5-min Rain = 0
KSB1 150352Z 12005KT 05/M04 A3043 RMK A01 T00501039  RH  053%=      5-min Rain = 0
KSB1 150353Z 12004KT 05/M04 A3043 RMK A01 T00501039  RH  053%=      5-min Rain = 0
KSB1 150354Z 12005KT 05/M04 A3043 RMK A01 T00501039  RH  053%=      5-min Rain = 0
KSB1 150355Z 12005KT 05/M04 A3043 RMK A01 T00501039  RH  053%=      5-min Rain = 0
KSB1 150356Z 12004KT 05/M04 A3043 RMK A01 T00491039  RH  053%=      5-min Rain = 0
KSB1 150357Z 12004KT 05/M04 A3043 RMK A01 T00491039  RH  053%=      5-min Rain = 0
KSB1 150358Z 11004KT 05/M04 A3043 RMK A01 T00491039  RH  053%=      5-min Rain = 0
KSB1 150359Z 11004KT 05/M04 A3043 RMK A01 T00491039  RH  053%=      5-min Rain = 0
KSB1 150400Z 11005KT 05/M04 A3043 RMK A01 T00491039  RH  053%=      5-min Rain = 0
KSB1 150401Z 11004KT 05/M04 A3043 RMK A01 T00491039  RH  053%=      5-min Rain = 0
KSB1 150402Z 10005KT 05/M04 A3043 RMK A01 T00491039  RH  053%=      5-min Rain = 0
KSB1 150403Z 10004KT 05/M04 A3043 RMK A01 T00491039  RH  053%=      5-min Rain = 0
KSB1 150404Z 10004KT 05/M04 A3043 RMK A01 T00491039  RH  053%=      5-min Rain = 0
KSB1 150405Z 10004KT 05/M04 A3043 RMK A01 T00491039  RH  053%=      5-min Rain = 0
KSB1 150406Z 10005KT 05/M04 A3043 RMK A01 T00491039  RH  053%=      5-min Rain = 0
KSB1 150407Z 10004KT 05/M04 A3043 RMK A01 T00481039  RH  053%=      5-min Rain = 0
KSB1 150408Z 10004KT 05/M04 A3043 RMK A01 T00481039  RH  053%=      5-min Rain = 0
KSB1 150409Z 10004KT 05/M04 A3043 RMK A01 T00481039  RH  053%=      5-min Rain = 0
KSB1 150410Z 10004KT 05/M04 A3043 RMK A01 T00481039  RH  053%=      5-min Rain = 0
KSB1 150411Z 10004KT 05/M04 A3043 RMK A01 T00481040  RH  053%=      5-min Rain = 0
KSB1 150412Z 10004KT 05/M04 A3043 RMK A01 T00481039  RH  053%=      5-min Rain = 0
KSB1 150413Z 10004KT 05/M04 A3043 RMK A01 T00481039  RH  053%=      5-min Rain = 0
KSB1 150414Z 10004KT 05/M04 A3043 RMK A01 T00481039  RH  053%=      5-min Rain = 0
KSB1 150415Z 09004KT 05/M04 A3043 RMK A01 T00481039  RH  053%=      5-min Rain = 0
KSB1 150416Z 09005KT 05/M04 A3043 RMK A01 T00471039  RH  053%=      5-min Rain = 0
KSB1 150417Z 09004KT 05/M04 A3043 RMK A01 T00471039  RH  053%=      5-min Rain = 0
KSB1 150418Z 09003KT 05/M04 A3043 RMK A01 T00471039  RH  054%=      5-min Rain = 0
KSB1 150419Z 10004KT 05/M04 A3043 RMK A01 T00461040  RH  054%=      5-min Rain = 0
KSB1 150420Z 09004KT 05/M04 A3043 RMK A01 T00461040  RH  054%=      5-min Rain = 0
KSB1 150421Z 09003KT 05/M04 A3043 RMK A01 T00461040  RH  054%=      5-min Rain = 0
KSB1 150422Z 09003KT 05/M04 A3043 RMK A01 T00461040  RH  054%=      5-min Rain = 0
KSB1 150423Z 09003KT 05/M04 A3043 RMK A01 T00461040  RH  054%=      5-min Rain = 0
KSB1 150424Z 09002KT 05/M04 A3043 RMK A01 T00461040  RH  054%=      5-min Rain = 0
KSB1 150425Z 10003KT 05/M04 A3043 RMK A01 T00461040  RH  054%=      5-min Rain = 0
KSB1 150426Z 09002KT 05/M04 A3043 RMK A01 T00461040  RH  054%=      5-min Rain = 0
KSB1 150427Z 09003KT 05/M04 A3043 RMK A01 T00461040  RH  054%=      5-min Rain = 0
KSB1 150428Z 10003KT 05/M04 A3043 RMK A01 T00461040  RH  054%=      5-min Rain = 0
KSB1 150429Z 10003KT 05/M04 A3043 RMK A01 T00461040  RH  054%=      5-min Rain = 0
KSB1 150430Z 10002KT 05/M04 A3043 RMK A01 T00461039  RH  054%=      5-min Rain = 0
KSB1 150431Z 11002KT 05/M04 A3043 RMK A01 T00461039  RH  054%=      5-min Rain = 0
KSB1 150432Z 10002KT 05/M04 A3043 RMK A01 T00471039  RH  054%=      5-min Rain = 0
KSB1 150433Z 09000KT 05/M04 A3043 RMK A01 T00471039  RH  054%=      5-min Rain = 0
KSB1 150434Z 10002KT 05/M04 A3043 RMK A01 T00471039  RH  054%=      5-min Rain = 0
KSB1 150435Z 10002KT 05/M04 A3043 RMK A01 T00481039  RH  053%=      5-min Rain = 0
KSB1 150436Z 10002KT 05/M04 A3043 RMK A01 T00481038  RH  053%=      5-min Rain = 0
KSB1 150437Z 11003KT 05/M04 A3043 RMK A01 T00481038  RH  053%=      5-min Rain = 0
KSB1 150438Z 10003KT 05/M04 A3043 RMK A01 T00491038  RH  053%=      5-min Rain = 0
KSB1 150439Z 11003KT 05/M04 A3043 RMK A01 T00491038  RH  053%=      5-min Rain = 0
KSB1 150440Z 11002KT 05/M04 A3043 RMK A01 T00491038  RH  053%=      5-min Rain = 0
KSB1 150441Z 10002KT 05/M04 A3043 RMK A01 T00491038  RH  053%=      5-min Rain = 0
KSB1 150442Z 09003KT 05/M04 A3043 RMK A01 T00501038  RH  053%=      5-min Rain = 0
KSB1 150443Z 10003KT 05/M04 A3043 RMK A01 T00501038  RH  053%=      5-min Rain = 0
KSB1 150444Z 10003KT 05/M04 A3043 RMK A01 T00501038  RH  053%=      5-min Rain = 0
KSB1 150445Z 09003KT 05/M04 A3043 RMK A01 T00501037  RH  053%=      5-min Rain = 0
KSB1 150446Z 09004KT 05/M04 A3043 RMK A01 T00491038  RH  053%=      5-min Rain = 0
KSB1 150447Z 09004KT 05/M04 A3043 RMK A01 T00491037  RH  054%=      5-min Rain = 0
KSB1 150448Z 08003KT 05/M04 A3043 RMK A01 T00481038  RH  054%=      5-min Rain = 0
KSB1 150449Z 08003KT 05/M04 A3043 RMK A01 T00481038  RH  054%=      5-min Rain = 0
KSB1 150450Z 08003KT 05/M04 A3043 RMK A01 T00471038  RH  054%=      5-min Rain = 0
KSB1 150451Z 09003KT 05/M04 A3043 RMK A01 T00461038  RH  054%=      5-min Rain = 0
KSB1 150452Z 08003KT 05/M04 A3043 RMK A01 T00461038  RH  055%=      5-min Rain = 0
KSB1 150453Z 08002KT 05/M04 A3043 RMK A01 T00461037  RH  055%=      5-min Rain = 0
KSB1 150454Z 08002KT 05/M04 A3043 RMK A01 T00461037  RH  055%=      5-min Rain = 0
KSB1 150455Z 08003KT 05/M04 A3043 RMK A01 T00461037  RH  055%=      5-min Rain = 0
KSB1 150456Z 08002KT 05/M04 A3043 RMK A01 T00461037  RH  055%=      5-min Rain = 0
KSB1 150457Z 07002KT 05/M04 A3043 RMK A01 T00461037  RH  055%=      5-min Rain = 0
KSB1 150458Z 08002KT 05/M04 A3043 RMK A01 T00461037  RH  055%=      5-min Rain = 0
KSB1 150459Z 08003KT 05/M04 A3043 RMK A01 T00471037  RH  055%=      5-min Rain = 0
KSB1 150500Z 08002KT 05/M04 A3043 RMK A01 T00461037  RH  055%=      5-min Rain = 0
KSB1 150501Z 08002KT 05/M04 A3043 RMK A01 T00461038  RH  055%=      5-min Rain = 0
KSB1 150502Z 08003KT 05/M04 A3043 RMK A01 T00461037  RH  055%=      5-min Rain = 0
KSB1 150503Z 09003KT 05/M04 A3043 RMK A01 T00461036  RH  055%=      5-min Rain = 0
KSB1 150504Z 10003KT 05/M04 A3043 RMK A01 T00461036  RH  055%=      5-min Rain = 0
KSB1 150505Z 10003KT 05/M04 A3043 RMK A01 T00461036  RH  055%=      5-min Rain = 0
KSB1 150506Z 10003KT 05/M04 A3043 RMK A01 T00461036  RH  055%=      5-min Rain = 0
KSB1 150507Z 11003KT 05/M04 A3043 RMK A01 T00471035  RH  055%=      5-min Rain = 0
KSB1 150508Z 12003KT 05/M04 A3043 RMK A01 T00471035  RH  055%=      5-min Rain = 0
KSB1 150509Z 12003KT 05/M04 A3044 RMK A01 T00471035  RH  055%=      5-min Rain = 0
KSB1 150510Z 10003KT 05/M04 A3044 RMK A01 T00461035  RH  055%=      5-min Rain = 0
KSB1 150511Z 13005KT 05/M04 A3044 RMK A01 T00461035  RH  056%=      5-min Rain = 0
KSB1 150512Z 13005KT 05/M03 A3044 RMK A01 T00461033  RH  057%=      5-min Rain = 0
KSB1 150513Z 12004KT 05/M03 A3044 RMK A01 T00481032  RH  056%=      5-min Rain = 0
KSB1 150514Z 12005KT 05/M03 A3044 RMK A01 T00481032  RH  056%=      5-min Rain = 0
KSB1 150515Z 13006KT 05/M03 A3044 RMK A01 T00481032  RH  056%=      5-min Rain = 0
KSB1 150516Z 12005KT 05/M03 A3044 RMK A01 T00481031  RH  056%=      5-min Rain = 0
KSB1 150517Z 12005KT 05/M03 A3044 RMK A01 T00481031  RH  057%=      5-min Rain = 0
KSB1 150518Z 12005KT 05/M03 A3043 RMK A01 T00471033  RH  056%=      5-min Rain = 0
KSB1 150519Z 12005KT 05/M03 A3043 RMK A01 T00461033  RH  057%=      5-min Rain = 0
KSB1 150520Z 12004KT 05/M03 A3043 RMK A01 T00451032  RH  057%=      5-min Rain = 0
KSB1 150521Z 11005KT 05/M03 A3043 RMK A01 T00451032  RH  057%=      5-min Rain = 0
KSB1 150522Z 12005KT 05/M03 A3043 RMK A01 T00461032  RH  057%=      5-min Rain = 0
KSB1 150523Z 12004KT 05/M03 A3043 RMK A01 T00461031  RH  057%=      5-min Rain = 0
KSB1 150524Z 12004KT 05/M03 A3043 RMK A01 T00451032  RH  057%=      5-min Rain = 0
KSB1 150525Z 12004KT 05/M03 A3043 RMK A01 T00451031  RH  057%=      5-min Rain = 0
KSB1 150526Z 13005KT 05/M03 A3043 RMK A01 T00451031  RH  058%=      5-min Rain = 0
KSB1 150527Z 13005KT 05/M03 A3043 RMK A01 T00451031  RH  058%=      5-min Rain = 0
KSB1 150528Z 13004KT 05/M03 A3043 RMK A01 T00451030  RH  058%=      5-min Rain = 0
KSB1 150529Z 12004KT 05/M03 A3043 RMK A01 T00451030  RH  058%=      5-min Rain = 0
KSB1 150530Z 13005KT 05/M03 A3043 RMK A01 T00451030  RH  058%=      5-min Rain = 0
KSB1 150531Z 13005KT 05/M03 A3043 RMK A01 T00451030  RH  058%=      5-min Rain = 0
KSB1 150532Z 12005KT 05/M03 A3043 RMK A01 T00451029  RH  058%=      5-min Rain = 0
KSB1 150533Z 13005KT 05/M03 A3043 RMK A01 T00451029  RH  058%=      5-min Rain = 0
KSB1 150534Z 13005KT 05/M03 A3043 RMK A01 T00451029  RH  059%=      5-min Rain = 0
KSB1 150535Z 13006KT 05/M03 A3044 RMK A01 T00451029  RH  059%=      5-min Rain = 0
KSB1 150536Z 12005KT 04/M03 A3043 RMK A01 T00441029  RH  059%=      5-min Rain = 0
KSB1 150537Z 12005KT 04/M03 A3043 RMK A01 T00441029  RH  059%=      5-min Rain = 0
KSB1 150538Z 13005KT 04/M03 A3043 RMK A01 T00441028  RH  059%=      5-min Rain = 0
KSB1 150539Z 13006KT 04/M03 A3043 RMK A01 T00441028  RH  060%=      5-min Rain = 0
KSB1 150540Z 12006KT 04/M03 A3043 RMK A01 T00441027  RH  060%=      5-min Rain = 0
KSB1 150541Z 13005KT 04/M03 A3043 RMK A01 T00441027  RH  060%=      5-min Rain = 0
KSB1 150542Z 13005KT 04/M03 A3043 RMK A01 T00431027  RH  060%=      5-min Rain = 0
KSB1 150543Z 12005KT 04/M03 A3043 RMK A01 T00421028  RH  060%=      5-min Rain = 0
KSB1 150544Z 12005KT 04/M03 A3043 RMK A01 T00411027  RH  061%=      5-min Rain = 0
KSB1 150545Z 12006KT 04/M03 A3043 RMK A01 T00411027  RH  061%=      5-min Rain = 0
KSB1 150546Z 12005KT 04/M03 A3043 RMK A01 T00421026  RH  061%=      5-min Rain = 0
KSB1 150547Z 13007KT 04/M03 A3043 RMK A01 T00421026  RH  061%=      5-min Rain = 0
KSB1 150548Z 13005KT 04/M03 A3043 RMK A01 T00421026  RH  061%=      5-min Rain = 0
KSB1 150549Z 13006KT 04/M03 A3043 RMK A01 T00431025  RH  062%=      5-min Rain = 0
KSB1 150550Z 13005KT 04/M03 A3043 RMK A01 T00431025  RH  061%=      5-min Rain = 0
KSB1 150551Z 13005KT 04/M03 A3043 RMK A01 T00431025  RH  061%=      5-min Rain = 0
KSB1 150552Z 13004KT 04/M03 A3043 RMK A01 T00421025  RH  062%=      5-min Rain = 0
KSB1 150553Z 13004KT 04/M03 A3043 RMK A01 T00421025  RH  062%=      5-min Rain = 0
KSB1 150554Z 13004KT 04/M03 A3043 RMK A01 T00411025  RH  062%=      5-min Rain = 0
KSB1 150555Z 13004KT 04/M03 A3043 RMK A01 T00411025  RH  062%=      5-min Rain = 0
KSB1 150556Z 13005KT 04/M03 A3043 RMK A01 T00411025  RH  062%=      5-min Rain = 0
KSB1 150557Z 13005KT 04/M02 A3043 RMK A01 T00411024  RH  063%=      5-min Rain = 0
KSB1 150558Z 13005KT 04/M02 A3043 RMK A01 T00421023  RH  063%=      5-min Rain = 0
KSB1 150559Z 13004KT 04/M02 A3043 RMK A01 T00421024  RH  062%=      5-min Rain = 0

Page generated in 0.1408 seconds.